                ,  0.675,  0.825,  0.975,  1.125,  1.275,  1.425,  1.575,  1.725,  1.875,  2.025,  2.175,  2.325,  2.475,  2.625,  2.775,  2.925,  3.075,  3.225,  3.375,  3.525,  3.675,  3.825,  3.975,  4.125,  4.275,  4.425,  4.575,  4.725,  4.875,  5.025,  5.175,  5.325,  5.475,  5.625,  5.775,  5.925,  6.075,  6.225,  6.375,  6.525,  6.675,  6.825,  6.975,  7.125,  7.275,  7.425,  7.575,  7.725,  7.875,  8.025,  8.175,  8.325,  8.475,  8.625,  8.775,  8.925,  9.075,  9.225,  9.375,  9.525,  9.675,  9.825,  9.975
2000/11/20 00:00,   -0.1,  999.0,   -1.1,   -2.2,   -1.2,    0.0,   -0.0,   -0.2,    0.0,    0.1,    0.1,    0.2,    0.3,    0.3,    0.3,  999.0,    0.6,  999.0,  999.0,  999.0,  999.0,  999.0,  999.0,   -0.0,    0.0,   -0.0,    0.2,  999.0,  999.0,  999.0,    0.4,  999.0,  999.0,  999.0,  999.0,  999.0,  999.0,  999.0,  999.0,  999.0,  999.0,  999.0,  999.0,  999.0,  999.0,  999.0,  999.0,  999.0,  999.0,  999.0,  999.0,  999.0,  999.0,  999.0,  999.0,  999.0,  999.0,  999.0,  999.0,  999.0,  999.0,  999.0,  999.0
2000/11/20 00:10,   -0.5,   -0.1,   -0.0,    0.2,    0.1,   -0.2,    0.0,    0.0,   -0.1,    0.1,    0.1,    0.3,    0.2,    0.1,    0.2,  999.0,  999.0,  999.0,  999.0,  999.0,  999.0,  999.0,    0.1,    0.0,    0.1,    0.0,   -0.0,    0.0,  999.0,  999.0,  999.0,  999.0,  999.0,  999.0,  999.0,  999.0,  999.0,  999.0,  999.0,  999.0,  999.0,  999.0,  999.0,  999.0,  999.0,  999.0,  999.0,  999.0,  999.0,  999.0,  999.0,  999.0,  999.0,  999.0,  999.0,  999.0,  999.0,  999.0,  999.0,  999.0,  999.0,  999.0,  999.0
2000/11/20 00:20,    0.1,    0.1,   -0.3,   -0.1,   -0.0,   -0.2,    0.2,    0.2,    0.2,    0.4,    0.3,    0.4,    0.4,    0.4,    0.3,    0.2,  999.0,  999.0,  999.0,  999.0,  999.0,  999.0,  999.0,    0.2,    0.3,    0.2,    0.2,    0.1,  999.0,  999.0,  999.0,  999.0,  999.0,  999.0,  999.0,  999.0,  999.0,  999.0,  999.0,  999.0,  999.0,  999.0,  999.0,  999.0,  999.0,  999.0,  999.0,  999.0,  999.0,  999.0,  999.0,  999.0,  999.0,  999.0,  999.0,  999.0,  999.0,  999.0,  999.0,  999.0,  999.0,  999.0,  999.0
2000/11/20 00:30,   -0.2,   -0.1,   -0.3,   -0.2,   -0.2,   -0.1,   -0.1,    0.2,    0.1,    0.1,    0.1,    0.1,    0.3,    0.3,    0.3,    0.0,  999.0,  999.0,  999.0,  999.0,  999.0,    0.1,    0.1,    0.0,   -0.0,   -0.1,   -0.2,   -0.3,  999.0,  999.0,  999.0,  999.0,  999.0,  999.0,  999.0,  999.0,  999.0,  999.0,  999.0,  999.0,  999.0,  999.0,  999.0,  999.0,  999.0,  999.0,  999.0,  999.0,  999.0,  999.0,  999.0,  999.0,  999.0,  999.0,  999.0,  999.0,  999.0,  999.0,  999.0,  999.0,  999.0,  999.0,  999.0
2000/11/20 00:40,    0.1,   -0.2,   -0.4,   -0.3,   -0.3,   -0.2,    0.0,    0.1,    0.0,    0.1,    0.2,    0.2,    0.2,    0.3,    0.2,    0.3,  999.0,  999.0,  999.0,  999.0,  999.0,   -0.1,    0.1,    0.1,    0.0,    0.0,   -0.1,  999.0,  999.0,  999.0,  999.0,  999.0,  999.0,  999.0,  999.0,  999.0,  999.0,  999.0,  999.0,  999.0,  999.0,  999.0,  999.0,  999.0,  999.0,  999.0,  999.0,  999.0,  999.0,  999.0,  999.0,  999.0,  999.0,  999.0,  999.0,  999.0,  999.0,  999.0,  999.0,  999.0,  999.0,  999.0,  999.0
2000/11/20 00:50,   -0.0,   -0.1,   -0.4,   -0.2,   -0.3,   -0.2,   -0.1,   -0.0,    0.0,   -0.0,    0.1,    0.2,    0.1,    0.3,  999.0,    0.5,  999.0,  999.0,  999.0,  999.0,  999.0,    0.2,    0.1,    0.1,   -0.0,    0.0,   -0.1,  999.0,  999.0,  999.0,  999.0,  999.0,  999.0,  999.0,  999.0,  999.0,  999.0,  999.0,  999.0,  999.0,  999.0,  999.0,  999.0,  999.0,  999.0,  999.0,  999.0,  999.0,  999.0,  999.0,  999.0,  999.0,  999.0,  999.0,  999.0,  999.0,  999.0,  999.0,  999.0,  999.0,  999.0,  999.0,  999.0
2000/11/20 01:00,   -0.1,   -0.3,   -0.2,   -0.2,   -0.3,   -0.2,   -0.2,   -0.1,   -0.1,   -0.2,   -0.2,   -0.2,   -0.2,   -0.1,   -0.0,    0.1,    0.4,  999.0,  999.0,  999.0,  999.0,    0.2,    0.1,    0.2,    0.1,    0.1,    0.2,  999.0,  999.0,  999.0,  999.0,  999.0,  999.0,  999.0,  999.0,  999.0,  999.0,  999.0,  999.0,  999.0,  999.0,  999.0,  999.0,  999.0,  999.0,  999.0,  999.0,  999.0,  999.0,  999.0,  999.0,  999.0,  999.0,  999.0,  999.0,  999.0,  999.0,  999.0,  999.0,  999.0,  999.0,  999.0,  999.0
2000/11/20 01:10,  999.0,   -0.1,   -0.0,   -0.2,   -0.2,   -0.3,   -0.2,   -0.2,   -0.2,   -0.1,   -0.1,   -0.1,   -0.2,   -0.1,    0.0,    0.1,    0.3,  999.0,  999.0,  999.0,    0.2,    0.3,    0.3,    0.3,    0.3,    0.2,    0.1,  999.0,  999.0,  999.0,  999.0,  999.0,  999.0,  999.0,  999.0,  999.0,  999.0,  999.0,  999.0,  999.0,  999.0,  999.0,  999.0,  999.0,  999.0,  999.0,  999.0,  999.0,  999.0,  999.0,  999.0,  999.0,  999.0,  999.0,  999.0,  999.0,  999.0,  999.0,  999.0,  999.0,  999.0,  999.0,  999.0
2000/11/20 01:20,    0.2,  999.0,   -0.2,   -0.0,   -0.2,   -0.2,   -0.2,   -0.2,   -0.2,   -0.1,    0.0,    0.0,    0.1,    0.1,    0.1,    0.1,  999.0,  999.0,  999.0,    0.1,    0.0,    0.0,    0.0,   -0.1,   -0.1,  999.0,   -0.2,  999.0,  999.0,  999.0,  999.0,  999.0,  999.0,  999.0,  999.0,  999.0,  999.0,  999.0,  999.0,  999.0,  999.0,  999.0,  999.0,  999.0,  999.0,  999.0,  999.0,  999.0,  999.0,  999.0,  999.0,  999.0,  999.0,  999.0,  999.0,  999.0,  999.0,  999.0,  999.0,  999.0,  999.0,  999.0,  999.0
2000/11/20 01:30,   -0.0,   -0.2,   -0.2,   -0.2,   -0.5,   -0.3,   -0.3,   -0.3,   -0.2,   -0.0,   -0.1,    0.1,    0.2,    0.3,    0.3,    0.4,    0.5,  999.0,  999.0,    0.1,    0.2,    0.2,    0.2,    0.3,   -0.0,    0.0,    0.1,  999.0,  999.0,  999.0,  999.0,  999.0,  999.0,  999.0,  999.0,  999.0,  999.0,  999.0,  999.0,  999.0,  999.0,  999.0,  999.0,  999.0,  999.0,  999.0,  999.0,  999.0,  999.0,  999.0,  999.0,  999.0,  999.0,  999.0,  999.0,  999.0,  999.0,  999.0,  999.0,  999.0,  999.0,  999.0,  999.0
2000/11/20 01:40,   -0.3,   -0.3,   -0.2,   -0.4,   -0.4,   -0.5,   -0.4,   -0.4,   -0.3,   -0.2,   -0.2,   -0.0,    0.1,    0.2,    0.2,    0.2,    0.3,    0.4,  999.0,  999.0,    0.2,    0.2,    0.2,    0.1,   -0.0,    0.0,   -0.1,  999.0,  999.0,  999.0,  999.0,  999.0,  999.0,  999.0,  999.0,  999.0,  999.0,  999.0,  999.0,  999.0,  999.0,  999.0,  999.0,  999.0,  999.0,  999.0,  999.0,  999.0,  999.0,  999.0,  999.0,  999.0,    0.2,  999.0,  999.0,  999.0,  999.0,  999.0,  999.0,  999.0,  999.0,  999.0,    0.2
2000/11/20 01:50,   -0.1,  999.0,   -0.2,   -0.1,   -0.3,   -0.4,   -0.3,   -0.2,   -0.2,   -0.2,   -0.1,    0.1,    0.1,    0.2,    0.4,    0.4,    0.4,    0.5,  999.0,    0.4,    0.4,    0.2,    0.2,    0.0,    0.1,    0.1,  999.0,  999.0,  999.0,  999.0,  999.0,  999.0,  999.0,  999.0,  999.0,  999.0,  999.0,  999.0,  999.0,  999.0,  999.0,  999.0,  999.0,  999.0,  999.0,  999.0,  999.0,  999.0,  999.0,  999.0,  999.0,  999.0,  999.0,  999.0,  999.0,  999.0,  999.0,  999.0,  999.0,  999.0,    0.2,  999.0,  999.0
2000/11/20 02:00,   -0.4,   -0.7,   -0.3,   -0.5,   -0.5,   -0.5,   -0.4,   -0.6,   -0.6,   -0.4,   -0.4,   -0.1,   -0.1,    0.0,    0.0,    0.1,    0.2,    0.1,    0.1,    0.2,    0.0,   -0.0,    0.1,   -0.1,   -0.2,  999.0,  999.0,  999.0,  999.0,  999.0,  999.0,  999.0,  999.0,  999.0,  999.0,  999.0,  999.0,  999.0,  999.0,  999.0,  999.0,  999.0,  999.0,  999.0,  999.0,  999.0,  999.0,  999.0,  999.0,  999.0,  999.0,  999.0,  999.0,  999.0,  999.0,  999.0,  999.0,  999.0,  999.0,  999.0,  999.0,  999.0,  999.0
2000/11/20 02:10,   -0.1,   -0.2,   -0.4,   -0.5,   -0.5,   -0.5,   -0.4,   -0.2,   -0.2,   -0.3,   -0.0,   -0.3,   -0.1,   -0.0,   -0.0,    0.1,    0.2,    0.4,  999.0,    0.2,    0.1,    0.0,   -0.1,   -0.1,   -0.1,  999.0,  999.0,  999.0,  999.0,  999.0,  999.0,  999.0,  999.0,  999.0,  999.0,  999.0,  999.0,  999.0,  999.0,  999.0,  999.0,    0.2,  999.0,  999.0,  999.0,  999.0,  999.0,  999.0,  999.0,  999.0,  999.0,  999.0,  999.0,  999.0,  999.0,  999.0,  999.0,  999.0,  999.0,  999.0,    0.4,  999.0,  999.0
2000/11/20 02:20,   -0.6,   -0.7,   -0.7,   -0.5,   -0.5,   -0.4,   -0.4,   -0.5,   -0.3,   -0.4,   -0.3,   -0.2,   -0.2,   -0.0,    0.1,    0.2,    0.2,    0.4,  999.0,    0.4,    0.3,    0.2,    0.2,    0.1,    0.0,  999.0,  999.0,  999.0,  999.0,  999.0,  999.0,  999.0,  999.0,  999.0,  999.0,  999.0,  999.0,  999.0,  999.0,  999.0,  999.0,  999.0,  999.0,  999.0,  999.0,  999.0,  999.0,  999.0,  999.0,  999.0,  999.0,  999.0,  999.0,  999.0,  999.0,  999.0,  999.0,  999.0,  999.0,  999.0,  999.0,  999.0,  999.0
2000/11/20 02:30,  999.0,   -0.3,   -0.2,   -0.3,   -0.2,   -0.2,   -0.1,   -0.1,   -0.1,    0.0,    0.1,    0.1,    0.2,    0.3,    0.4,    0.4,    0.5,  999.0,  999.0,    0.5,    0.4,    0.3,    0.2,    0.1,    0.1,  999.0,   -0.1,  999.0,  999.0,  999.0,  999.0,  999.0,  999.0,  999.0,  999.0,  999.0,  999.0,  999.0,  999.0,  999.0,  999.0,  999.0,  999.0,  999.0,  999.0,  999.0,  999.0,  999.0,  999.0,  999.0,  999.0,  999.0,  999.0,  999.0,  999.0,  999.0,  999.0,  999.0,  999.0,  999.0,  999.0,  999.0,  999.0
2000/11/20 02:40,   -0.3,   -0.2,   -0.2,   -0.3,   -0.2,   -0.2,   -0.2,   -0.1,   -0.0,    0.1,    0.1,    0.1,    0.3,    0.3,    0.3,    0.3,    0.2,  999.0,  999.0,    0.2,    0.1,    0.1,    0.1,  999.0,    0.0,  999.0,   -0.1,  999.0,  999.0,  999.0,  999.0,  999.0,  999.0,  999.0,  999.0,  999.0,  999.0,  999.0,  999.0,  999.0,  999.0,  999.0,  999.0,  999.0,  999.0,  999.0,  999.0,  999.0,  999.0,  999.0,  999.0,  999.0,  999.0,  999.0,  999.0,  999.0,  999.0,  999.0,  999.0,  999.0,  999.0,  999.0,  999.0
2000/11/20 02:50,   -0.3,   -0.2,   -0.3,   -0.3,   -0.3,   -0.3,   -0.3,   -0.2,   -0.2,   -0.1,   -0.1,   -0.0,   -0.0,    0.1,    0.2,    0.2,    0.2,    0.3,    0.3,    0.2,    0.2,    0.2,    0.0,  999.0,   -0.1,  999.0,  999.0,  999.0,  999.0,  999.0,  999.0,  999.0,  999.0,  999.0,  999.0,  999.0,  999.0,  999.0,  999.0,  999.0,  999.0,  999.0,  999.0,  999.0,  999.0,  999.0,  999.0,  999.0,  999.0,  999.0,  999.0,  999.0,  999.0,  999.0,  999.0,  999.0,  999.0,  999.0,  999.0,  999.0,  999.0,  999.0,  999.0
2000/11/20 03:00,   -0.3,   -0.3,   -0.2,   -0.3,   -0.2,   -0.3,   -0.3,   -0.2,   -0.2,   -0.2,   -0.2,   -0.2,   -0.1,   -0.1,   -0.0,   -0.0,   -0.0,  999.0,    0.0,   -0.1,   -0.1,   -0.1,   -0.2,   -0.2,   -0.2,  999.0,  999.0,  999.0,  999.0,    0.1,    0.0,    0.2,    0.2,    0.2,  999.0,  999.0,  999.0,  999.0,  999.0,  999.0,  999.0,  999.0,  999.0,  999.0,  999.0,  999.0,  999.0,  999.0,  999.0,  999.0,  999.0,  999.0,  999.0,  999.0,  999.0,  999.0,  999.0,  999.0,  999.0,  999.0,  999.0,  999.0,  999.0
2000/11/20 03:10,   -0.2,   -0.3,   -0.3,   -0.3,   -0.2,   -0.2,   -0.2,   -0.2,   -0.2,   -0.2,   -0.2,   -0.1,   -0.1,   -0.1,    0.0,    0.0,    0.0,    0.1,    0.2,    0.2,    0.1,   -0.0,  999.0,   -0.0,  999.0,  999.0,   -0.0,  999.0,    0.1,    0.2,    0.3,    0.2,    0.1,  999.0,  999.0,  999.0,  999.0,  999.0,  999.0,  999.0,  999.0,  999.0,  999.0,  999.0,  999.0,  999.0,  999.0,  999.0,  999.0,  999.0,  999.0,  999.0,  999.0,  999.0,  999.0,  999.0,  999.0,  999.0,  999.0,  999.0,  999.0,  999.0,  999.0
2000/11/20 03:20,   -0.4,  999.0,   -0.3,   -0.3,   -0.3,   -0.2,   -0.2,   -0.2,   -0.2,   -0.2,   -0.1,   -0.2,   -0.0,    0.0,    0.0,    0.1,   -0.0,    0.0,    0.1,    0.1,    0.0,    0.0,  999.0,  999.0,  999.0,  999.0,    0.1,  999.0,  999.0,  999.0,  999.0,  999.0,   -0.1,    0.1,  999.0,  999.0,  999.0,  999.0,  999.0,  999.0,  999.0,  999.0,  999.0,  999.0,  999.0,  999.0,  999.0,  999.0,  999.0,  999.0,  999.0,  999.0,  999.0,  999.0,  999.0,  999.0,  999.0,  999.0,  999.0,  999.0,  999.0,  999.0,  999.0
2000/11/20 03:30,   -0.4,   -0.3,   -0.2,   -0.2,   -0.2,   -0.2,   -0.2,   -0.2,   -0.3,   -0.2,   -0.2,   -0.1,    0.0,   -0.0,    0.1,    0.1,    0.1,    0.3,    0.2,    0.2,    0.3,    0.2,  999.0,  999.0,  999.0,  999.0,  999.0,  999.0,  999.0,    0.3,  999.0,    0.3,    0.0,  999.0,  999.0,  999.0,  999.0,  999.0,  999.0,  999.0,  999.0,  999.0,  999.0,  999.0,  999.0,  999.0,  999.0,  999.0,  999.0,  999.0,  999.0,  999.0,  999.0,  999.0,  999.0,  999.0,  999.0,  999.0,  999.0,  999.0,  999.0,  999.0,  999.0
2000/11/20 03:40,   -0.3,   -0.3,   -0.4,   -0.3,   -0.3,   -0.4,   -0.4,   -0.4,   -0.4,   -0.4,   -0.3,   -0.2,   -0.2,   -0.1,   -0.1,    0.0,   -0.0,    0.1,    0.1,    0.2,    0.3,    0.1,  999.0,  999.0,    0.2,  999.0,    0.4,  999.0,    0.5,  999.0,  999.0,  999.0,  999.0,  999.0,  999.0,  999.0,  999.0,  999.0,  999.0,  999.0,  999.0,  999.0,  999.0,  999.0,  999.0,  999.0,  999.0,  999.0,  999.0,  999.0,  999.0,  999.0,  999.0,  999.0,  999.0,  999.0,  999.0,  999.0,  999.0,  999.0,  999.0,  999.0,  999.0
2000/11/20 03:50,   -0.2,   -0.2,   -0.3,   -0.3,   -0.3,   -0.4,   -0.4,   -0.3,   -0.3,   -0.3,   -0.1,   -0.2,   -0.2,   -0.2,   -0.1,   -0.1,    0.0,   -0.1,    0.0,   -0.1,    0.0,    0.1,  999.0,  999.0,  999.0,  999.0,  999.0,    0.6,    0.6,  999.0,  999.0,    0.3,    0.4,  999.0,  999.0,  999.0,  999.0,  999.0,  999.0,  999.0,  999.0,  999.0,  999.0,  999.0,  999.0,  999.0,  999.0,  999.0,  999.0,  999.0,  999.0,  999.0,  999.0,  999.0,  999.0,  999.0,  999.0,  999.0,  999.0,  999.0,  999.0,    0.1,  999.0
2000/11/20 04:00,   -0.3,   -0.3,   -0.4,   -0.5,   -0.5,   -0.6,   -0.5,   -0.4,   -0.3,   -0.3,   -0.2,   -0.0,    0.1,    0.3,    0.2,    0.3,    0.3,    0.3,    0.4,    0.3,    0.3,    0.3,  999.0,  999.0,  999.0,  999.0,    0.4,    0.4,  999.0,  999.0,    0.5,  999.0,  999.0,  999.0,  999.0,  999.0,    0.3,   -0.1,  999.0,  999.0,  999.0,  999.0,  999.0,  999.0,  999.0,  999.0,  999.0,  999.0,  999.0,  999.0,  999.0,  999.0,  999.0,  999.0,  999.0,  999.0,  999.0,  999.0,  999.0,  999.0,  999.0,  999.0,  999.0
2000/11/20 04:10,   -0.3,   -0.2,   -0.3,   -0.4,   -0.4,   -0.3,   -0.3,   -0.2,   -0.2,   -0.2,   -0.0,    0.1,    0.2,    0.2,    0.3,    0.3,    0.3,    0.3,    0.3,    0.3,    0.2,    0.4,  999.0,  999.0,  999.0,  999.0,    0.2,  999.0,  999.0,  999.0,  999.0,  999.0,  999.0,  999.0,  999.0,  999.0,  999.0,  999.0,  999.0,  999.0,  999.0,  999.0,  999.0,  999.0,   -0.6,  999.0,   -0.6,  999.0,  999.0,  999.0,  999.0,  999.0,  999.0,  999.0,  999.0,  999.0,  999.0,  999.0,  999.0,  999.0,  999.0,  999.0,  999.0
2000/11/20 04:20,   -0.2,   -0.3,   -0.4,   -0.4,   -0.4,   -0.4,   -0.4,   -0.3,   -0.2,   -0.2,   -0.2,   -0.2,   -0.1,    0.0,    0.1,    0.1,    0.1,    0.1,    0.1,    0.0,    0.0,  999.0,  999.0,  999.0,  999.0,   -0.3,   -0.3,  999.0,   -0.1,  999.0,   -0.5,  999.0,  999.0,  999.0,  999.0,  999.0,  999.0,  999.0,  999.0,  999.0,   -0.7,  999.0,   -0.7,   -0.8,   -0.9,   -1.0,   -1.1,  999.0,  999.0,  999.0,  999.0,  999.0,  999.0,  999.0,  999.0,  999.0,  999.0,  999.0,  999.0,  999.0,  999.0,  999.0,  999.0
2000/11/20 04:30,   -0.6,   -0.3,   -0.4,   -0.4,   -0.3,   -0.3,   -0.2,   -0.2,   -0.1,   -0.1,   -0.1,   -0.1,    0.0,    0.1,    0.2,    0.1,    0.1,    0.2,    0.2,    0.2,    0.0,  999.0,  999.0,  999.0,   -0.1,    0.2,   -0.1,   -0.2,   -0.2,  999.0,   -0.2,    0.4,  999.0,  999.0,  999.0,  999.0,  999.0,  999.0,  999.0,  999.0,  999.0,  999.0,  999.0,  999.0,  999.0,  999.0,  999.0,  999.0,  999.0,  999.0,  999.0,  999.0,  999.0,  999.0,  999.0,  999.0,  999.0,  999.0,  999.0,  999.0,  999.0,  999.0,  999.0
2000/11/20 04:40,   -0.2,   -0.2,   -0.2,   -0.2,   -0.3,   -0.3,   -0.2,   -0.3,   -0.1,   -0.1,   -0.1,    0.1,    0.1,    0.3,    0.3,    0.2,  999.0,    0.3,    0.3,    0.2,    0.2,  999.0,  999.0,    0.1,   -0.2,    0.1,  999.0,    0.1,  999.0,    0.1,  999.0,  999.0,    0.3,    0.2,    0.2,  999.0,  999.0,  999.0,  999.0,  999.0,  999.0,  999.0,  999.0,  999.0,  999.0,  999.0,  999.0,  999.0,  999.0,  999.0,  999.0,  999.0,  999.0,  999.0,  999.0,  999.0,  999.0,  999.0,  999.0,  999.0,  999.0,  999.0,  999.0
2000/11/20 04:50,   -0.2,   -0.1,   -0.2,   -0.2,   -0.2,   -0.2,   -0.2,   -0.2,   -0.2,   -0.1,   -0.0,    0.1,    0.1,    0.1,    0.2,    0.2,    0.2,    0.2,    0.1,    0.0,   -0.2,   -0.2,  999.0,   -0.1,   -0.1,   -0.4,   -1.1,   -0.9,   -0.6,   -0.7,   -0.6,   -0.4,   -0.1,    0.2,    0.2,  999.0,  999.0,  999.0,  999.0,  999.0,  999.0,  999.0,  999.0,  999.0,  999.0,  999.0,  999.0,  999.0,  999.0,  999.0,  999.0,  999.0,  999.0,  999.0,  999.0,  999.0,  999.0,  999.0,  999.0,  999.0,  999.0,  999.0,  999.0
2000/11/20 05:00,   -0.3,   -0.2,   -0.1,   -0.2,   -0.2,   -0.1,   -0.2,   -0.2,   -0.2,   -0.1,   -0.0,    0.1,    0.1,    0.2,    0.2,    0.4,    0.4,    0.4,    0.3,    0.2,    0.1,  999.0,  999.0,   -0.2,   -0.2,   -0.3,   -1.2,   -0.7,   -0.6,   -0.9,   -1.2,   -0.7,   -0.7,   -0.1,   -0.1,  999.0,  999.0,  999.0,  999.0,  999.0,  999.0,  999.0,  999.0,  999.0,  999.0,  999.0,  999.0,  999.0,  999.0,  999.0,  999.0,  999.0,  999.0,   -0.3,   -0.5,   -0.7,   -0.6,  999.0,  999.0,  999.0,  999.0,  999.0,  999.0
2000/11/20 05:10,   -0.2,   -0.2,   -0.5,   -0.5,   -0.5,   -0.5,   -0.4,   -0.4,   -0.4,   -0.2,   -0.2,   -0.1,   -0.0,    0.1,    0.1,    0.2,    0.3,    0.2,    0.1,    0.1,  999.0,  999.0,    0.2,   -0.0,    0.1,   -0.5,    0.1,  999.0,   -0.0,    0.1,  999.0,  999.0,  999.0,   -0.2,  999.0,    0.1,  999.0,  999.0,  999.0,  999.0,  999.0,  999.0,  999.0,  999.0,  999.0,  999.0,  999.0,  999.0,  999.0,   -0.4,   -0.5,   -0.6,   -0.3,   -0.3,   -0.5,  999.0,   -0.5,  999.0,  999.0,  999.0,  999.0,  999.0,  999.0
2000/11/20 05:20,   -0.2,   -0.1,   -0.4,   -0.4,   -0.5,   -0.5,   -0.5,   -0.6,   -0.5,  999.0,   -0.2,    0.0,    0.1,    0.2,    0.3,    0.4,    0.4,    0.3,    0.4,    0.4,    0.3,  999.0,  999.0,    0.5,    0.3,    0.5,    0.4,  999.0,  999.0,  999.0,  999.0,  999.0,  999.0,  999.0,  999.0,  999.0,  999.0,  999.0,  999.0,  999.0,  999.0,  999.0,  999.0,  999.0,   -0.4,   -0.4,   -0.6,   -0.6,   -0.6,   -0.6,   -0.6,   -0.7,   -0.4,   -0.5,  999.0,   -0.5,  999.0,  999.0,  999.0,  999.0,  999.0,  999.0,  999.0
2000/11/20 05:30,   -0.1,   -0.2,   -0.3,   -0.4,   -0.3,   -0.3,   -0.4,   -0.4,   -0.4,   -0.2,   -0.0,    0.1,    0.2,    0.2,    0.3,    0.3,    0.4,    0.4,    0.4,    0.4,    0.2,    0.7,  999.0,    0.5,    0.4,    0.4,  999.0,  999.0,    0.3,  999.0,   -0.8,  999.0,  999.0,   -0.4,   -0.9,   -0.9,   -0.9,   -0.8,   -0.7,   -0.8,   -0.6,   -0.7,   -0.7,   -0.7,   -0.8,   -0.6,   -0.7,   -0.7,   -0.7,   -0.7,   -0.6,   -0.6,   -0.5,   -0.5,   -0.6,   -0.5,  999.0,  999.0,  999.0,  999.0,  999.0,  999.0,  999.0
2000/11/20 05:40,   -0.1,   -0.3,   -0.4,   -0.4,   -0.4,   -0.4,   -0.4,   -0.3,   -0.2,   -0.1,    0.2,    0.1,    0.2,    0.2,    0.2,    0.1,    0.2,    0.2,    0.3,    0.2,    0.2,  999.0,  999.0,  999.0,  999.0,   -1.7,   -1.9,   -1.9,   -1.8,   -1.6,   -1.5,   -1.3,   -1.2,   -1.1,   -1.1,   -1.2,   -1.1,   -1.1,   -1.1,   -1.0,   -1.0,   -1.0,   -1.0,   -1.0,   -1.0,   -0.9,   -0.9,   -0.8,   -0.8,   -0.8,   -0.9,   -0.8,   -0.7,   -0.5,  999.0,  999.0,  999.0,  999.0,  999.0,  999.0,  999.0,  999.0,  999.0
2000/11/20 05:50,    0.1,   -0.3,   -0.4,   -0.4,   -0.4,   -0.5,   -0.5,   -0.4,   -0.4,   -0.2,   -0.1,   -0.1,    0.1,    0.2,    0.1,    0.1,    0.0,    0.1,    0.2,   -0.1,   -0.2,   -0.6,   -0.8,   -1.1,   -1.3,   -1.3,   -1.3,   -1.2,   -1.1,   -1.0,   -1.0,   -1.0,   -0.9,   -0.9,   -0.9,   -0.9,   -0.9,   -0.9,   -0.8,   -0.8,   -0.8,   -0.8,   -0.8,   -0.8,   -0.7,   -0.8,   -0.8,   -0.8,   -0.8,   -0.8,   -0.8,   -0.6,   -0.5,   -0.6,   -0.6,   -0.7,  999.0,  999.0,  999.0,  999.0,  999.0,  999.0,  999.0
2000/11/20 06:00,   -0.1,   -0.2,   -0.4,   -0.4,   -0.5,   -0.7,   -0.6,   -0.5,   -0.7,   -0.5,   -0.6,   -0.6,   -0.2,   -0.1,    0.1,    0.1,    0.3,    0.3,    0.4,    0.2,   -0.4,   -0.6,   -1.0,   -1.2,   -1.3,   -1.4,   -1.3,   -1.3,   -1.2,   -1.1,   -1.1,   -0.9,   -0.9,   -0.9,   -0.9,   -1.0,   -1.1,   -1.2,   -1.0,  999.0,  999.0,  999.0,  999.0,  999.0,  999.0,   -0.8,   -0.7,  999.0,   -0.6,   -0.8,   -0.8,   -0.8,   -0.9,   -0.9,   -0.9,   -0.7,   -0.7,   -0.6,   -0.4,   -0.4,  999.0,  999.0,  999.0
2000/11/20 06:10,   -0.2,   -0.4,   -0.7,   -0.6,   -0.6,   -0.6,   -0.6,   -0.5,   -0.5,   -0.7,   -0.5,   -0.4,   -0.3,   -0.1,   -0.1,   -0.0,    0.1,  999.0,    0.3,    0.1,   -0.6,   -0.9,   -1.1,   -1.3,   -1.4,   -1.5,   -1.5,   -1.4,   -1.3,   -1.2,   -1.1,   -1.0,   -0.9,   -0.8,   -0.8,   -0.9,   -0.9,   -1.0,   -1.0,   -0.9,   -0.9,   -0.9,   -0.9,   -0.8,   -0.9,   -0.9,   -0.9,   -1.0,   -1.0,   -1.0,   -0.9,   -0.8,   -0.8,   -0.9,  999.0,  999.0,  999.0,  999.0,  999.0,  999.0,  999.0,  999.0,  999.0
2000/11/20 06:20,   -0.5,   -0.5,   -0.6,   -0.6,   -0.7,   -0.7,   -0.7,   -0.7,   -0.6,   -0.6,   -0.7,   -0.6,   -0.7,  999.0,  999.0,  999.0,    0.4,    0.4,    0.3,   -0.1,   -0.8,   -1.1,   -1.1,   -1.2,   -1.2,   -1.2,   -1.2,   -1.1,   -1.0,   -1.0,   -1.0,   -0.9,   -0.9,   -0.8,   -0.8,   -0.9,   -1.1,   -1.0,   -1.0,   -1.0,   -0.9,   -0.9,   -0.8,   -0.9,   -0.8,   -0.7,   -0.9,   -0.9,   -0.7,   -0.7,  999.0,  999.0,  999.0,  999.0,  999.0,  999.0,  999.0,  999.0,  999.0,  999.0,  999.0,  999.0,  999.0
2000/11/20 06:30,   -0.2,   -0.6,   -0.6,   -0.5,   -0.5,   -0.6,   -0.7,   -0.6,   -0.6,   -0.7,   -0.9,   -0.9,   -0.8,   -0.6,   -0.6,   -0.2,  999.0,   -0.1,   -0.0,   -0.4,   -1.0,   -1.0,   -1.1,   -1.2,   -1.2,   -1.2,   -1.2,   -1.2,   -1.1,   -1.1,   -1.0,   -0.9,   -0.9,   -0.9,   -0.9,   -0.8,   -0.9,   -0.9,   -0.8,   -0.8,   -0.9,   -0.9,   -0.8,   -0.9,   -0.8,   -0.8,   -0.8,  999.0,  999.0,  999.0,  999.0,  999.0,  999.0,  999.0,  999.0,  999.0,  999.0,  999.0,  999.0,  999.0,  999.0,  999.0,  999.0
2000/11/20 06:40,   -0.2,   -0.6,   -0.6,   -0.6,   -0.6,   -0.7,   -0.7,   -0.6,   -0.6,   -0.6,   -0.6,   -0.5,   -0.5,   -0.5,   -0.4,   -0.1,   -0.0,   -0.1,    0.1,   -0.1,   -0.6,   -0.9,   -1.1,   -1.2,   -1.3,   -1.3,   -1.3,   -1.3,   -1.2,   -1.1,   -1.1,   -1.0,   -1.0,   -1.0,   -0.9,   -1.0,   -1.0,   -0.9,   -0.9,   -0.9,   -0.8,   -0.8,   -0.8,   -0.8,   -0.7,   -0.8,   -0.8,   -0.8,   -0.8,  999.0,   -0.8,  999.0,  999.0,  999.0,  999.0,  999.0,  999.0,  999.0,  999.0,  999.0,  999.0,  999.0,  999.0
2000/11/20 06:50,   -0.2,   -0.6,   -0.6,   -0.6,   -0.6,   -0.5,   -0.5,   -0.4,   -0.5,   -0.5,   -0.5,   -0.4,   -0.4,   -0.1,   -0.0,   -0.0,   -0.1,   -0.0,    0.2,   -0.3,   -0.9,   -1.2,   -1.4,   -1.4,   -1.4,   -1.5,   -1.4,   -1.4,   -1.2,   -1.1,   -1.0,   -1.0,   -0.9,   -0.8,   -0.8,   -0.8,   -1.0,   -0.9,   -0.9,   -0.8,   -0.9,   -0.9,   -1.0,   -0.9,   -1.0,   -0.9,   -0.8,  999.0,  999.0,  999.0,  999.0,  999.0,  999.0,  999.0,  999.0,  999.0,  999.0,  999.0,  999.0,  999.0,  999.0,  999.0,  999.0
2000/11/20 07:00,   -0.2,   -0.5,   -0.5,   -0.5,   -0.5,   -0.5,   -0.5,   -0.4,   -0.6,   -0.6,   -0.4,   -0.4,   -0.3,    0.0,    0.1,    0.0,    0.1,   -0.1,    0.4,   -0.9,   -1.1,   -1.1,   -1.0,   -1.1,   -1.1,   -1.1,   -1.2,   -1.0,   -0.9,   -0.8,   -0.8,   -0.8,   -0.7,   -0.7,   -0.7,   -0.8,   -0.9,   -0.9,   -0.9,   -0.9,   -0.9,   -1.0,   -1.0,   -0.8,   -0.8,   -0.6,   -0.2,  999.0,  999.0,  999.0,  999.0,  999.0,  999.0,  999.0,  999.0,  999.0,  999.0,  999.0,  999.0,  999.0,  999.0,  999.0,  999.0
2000/11/20 07:10,   -0.2,   -0.5,   -0.5,   -0.6,   -0.6,   -0.6,   -0.6,   -0.4,   -0.6,   -0.7,   -0.6,   -0.5,   -0.4,   -0.2,   -0.1,   -0.2,    0.0,    0.1,   -0.0,   -0.0,   -0.4,   -0.9,   -1.1,   -1.2,   -1.1,   -1.2,   -1.0,   -1.0,   -1.0,   -0.9,   -0.9,   -0.9,   -1.0,   -1.0,   -1.0,   -1.0,   -1.1,   -1.0,   -1.1,   -1.1,   -1.1,   -1.1,   -1.0,   -1.0,   -0.7,   -0.4,   -0.4,   -0.1,  999.0,  999.0,  999.0,  999.0,  999.0,  999.0,  999.0,  999.0,  999.0,  999.0,  999.0,  999.0,  999.0,  999.0,  999.0
2000/11/20 07:20,   -0.4,   -0.8,   -0.6,   -0.6,   -0.6,   -0.7,   -0.6,   -0.5,   -0.5,   -0.5,   -0.5,   -0.5,   -0.4,   -0.4,   -0.3,   -0.2,   -0.2,   -0.3,   -0.6,   -1.0,   -1.3,   -1.2,   -1.1,   -1.1,   -1.0,   -1.0,   -0.9,   -0.9,   -0.8,   -0.8,   -0.8,   -0.8,   -0.9,   -0.8,   -1.0,   -1.1,   -1.1,   -1.1,   -1.1,   -1.2,   -1.2,   -0.8,   -0.9,   -0.7,  999.0,  999.0,  999.0,  999.0,  999.0,  999.0,  999.0,  999.0,  999.0,  999.0,  999.0,  999.0,  999.0,  999.0,  999.0,  999.0,  999.0,  999.0,  999.0
2000/11/20 07:30,   -0.4,   -0.6,   -0.6,   -0.6,   -0.7,   -0.6,   -0.5,   -0.5,   -0.4,   -0.5,   -0.4,   -0.3,   -0.4,   -0.4,   -0.4,   -0.3,   -0.2,   -0.3,   -0.8,   -1.3,   -1.2,   -1.2,   -1.1,   -1.2,   -1.1,   -1.2,   -1.2,   -1.2,   -1.2,   -1.1,   -1.1,   -0.9,   -1.0,   -1.0,   -1.1,   -1.1,   -1.1,   -1.1,   -1.0,   -1.1,   -1.0,   -1.0,   -0.7,   -0.6,  999.0,  999.0,  999.0,  999.0,  999.0,  999.0,  999.0,  999.0,  999.0,  999.0,  999.0,  999.0,  999.0,  999.0,  999.0,  999.0,  999.0,  999.0,  999.0
2000/11/20 07:40,   -0.3,   -0.5,   -0.5,   -0.6,   -0.7,   -0.6,   -0.7,   -0.7,   -0.6,   -0.5,   -0.4,   -0.4,   -0.4,   -0.3,   -0.2,   -0.0,   -0.2,   -0.4,   -0.4,   -0.3,   -0.5,   -0.6,   -0.7,   -0.7,   -0.8,   -0.8,   -0.9,   -0.8,   -0.8,   -0.8,   -0.8,   -0.9,   -0.9,   -0.9,   -1.1,   -1.1,   -1.0,   -0.9,   -0.8,   -0.9,   -0.8,   -0.8,   -0.9,   -0.9,  999.0,  999.0,  999.0,  999.0,  999.0,  999.0,  999.0,  999.0,  999.0,  999.0,  999.0,  999.0,  999.0,  999.0,  999.0,  999.0,  999.0,  999.0,  999.0
2000/11/20 07:50,   -0.2,   -0.2,   -0.3,   -0.4,   -0.4,   -0.6,   -0.5,  999.0,   -0.5,   -0.3,   -0.2,   -0.2,   -0.0,    0.1,    0.2,    0.3,    0.2,    0.2,    0.2,    0.2,    0.0,   -0.4,   -0.4,   -0.5,   -0.6,   -0.5,   -0.6,   -0.7,   -0.7,   -0.8,   -0.8,   -0.7,   -0.6,   -0.5,   -0.5,   -0.7,   -0.9,   -0.8,   -0.9,   -1.0,   -1.2,   -1.0,   -0.8,  999.0,  999.0,  999.0,  999.0,  999.0,  999.0,  999.0,  999.0,  999.0,  999.0,  999.0,  999.0,  999.0,  999.0,  999.0,  999.0,  999.0,  999.0,  999.0,  999.0
2000/11/20 08:00,   -0.1,   -0.4,   -0.4,   -0.3,   -0.4,   -0.5,   -0.6,   -0.6,   -0.5,   -0.3,   -0.3,   -0.3,   -0.1,   -0.1,   -0.0,    0.1,   -0.2,    0.0,   -0.4,   -0.4,  999.0,   -1.4,   -1.5,   -1.5,   -1.5,   -1.5,   -1.5,   -1.5,   -1.4,   -1.3,   -1.3,   -1.1,   -0.9,   -0.8,   -0.7,   -0.8,   -1.0,   -1.1,   -1.0,   -1.1,   -0.7,   -0.6,  999.0,   -0.0,  999.0,  999.0,  999.0,  999.0,  999.0,  999.0,  999.0,  999.0,  999.0,  999.0,  999.0,  999.0,  999.0,  999.0,  999.0,  999.0,  999.0,  999.0,  999.0
2000/11/20 08:10,   -0.1,   -0.3,   -0.4,   -0.3,   -0.3,   -0.5,   -0.5,   -0.5,   -0.5,   -0.5,   -0.5,   -0.5,   -0.4,   -0.2,   -0.2,   -0.1,   -0.2,   -0.7,   -0.9,   -1.5,   -1.6,   -1.6,   -1.7,   -1.8,   -1.8,   -1.9,   -1.8,   -1.8,   -1.6,   -1.5,   -1.2,   -1.1,   -1.1,   -0.9,   -0.8,   -0.8,   -0.7,   -0.7,   -0.8,   -0.9,  999.0,  999.0,  999.0,  999.0,  999.0,  999.0,  999.0,  999.0,  999.0,  999.0,  999.0,  999.0,  999.0,  999.0,  999.0,  999.0,  999.0,  999.0,  999.0,  999.0,  999.0,  999.0,  999.0
2000/11/20 08:20,   -0.1,   -0.4,   -0.5,   -0.4,   -0.4,   -0.4,   -0.6,   -0.9,   -0.5,   -0.4,   -0.4,   -0.3,   -0.3,   -0.1,   -0.3,   -0.6,   -1.0,   -1.4,  999.0,  999.0,   -1.6,   -1.6,   -1.6,   -1.6,   -1.7,   -1.7,   -1.7,   -1.7,   -1.6,   -1.4,   -1.2,   -0.9,   -0.8,   -0.7,   -0.6,   -0.6,   -0.6,   -0.7,   -0.7,  999.0,  999.0,  999.0,  999.0,  999.0,  999.0,  999.0,  999.0,  999.0,  999.0,  999.0,  999.0,   -0.4,  999.0,  999.0,   -0.3,  999.0,  999.0,  999.0,  999.0,  999.0,  999.0,  999.0,  999.0
2000/11/20 08:30,   -0.2,   -0.6,   -0.7,   -0.5,   -0.5,   -0.5,   -0.5,   -0.5,   -0.5,   -0.4,   -0.5,   -0.4,   -0.3,   -0.3,   -0.2,   -0.1,   -0.1,   -0.4,   -0.6,   -0.9,   -1.0,   -1.0,   -1.0,   -1.0,   -1.0,   -1.0,   -0.9,   -0.8,   -0.8,   -0.8,   -0.8,   -0.7,   -0.7,   -0.7,   -0.5,   -0.4,   -0.6,   -0.7,   -0.6,   -0.5,   -0.5,   -0.5,   -0.4,   -0.4,   -0.4,   -0.4,   -0.4,   -0.5,   -0.5,   -0.4,   -0.5,   -0.5,   -0.4,   -0.5,   -0.5,   -0.5,   -0.5,   -0.4,  999.0,  999.0,  999.0,  999.0,  999.0
2000/11/20 08:40,   -0.2,   -0.5,   -0.7,   -0.5,   -0.5,   -0.3,   -0.5,   -0.8,   -0.6,   -0.6,   -0.6,   -0.8,   -0.6,   -0.7,   -0.4,   -0.2,   -0.8,   -1.3,   -1.3,   -1.2,   -1.1,   -1.0,   -1.0,   -1.0,   -1.2,   -1.3,   -1.3,   -1.3,   -1.3,   -1.2,   -1.1,   -0.9,   -0.9,   -0.9,   -0.9,   -0.8,   -0.9,   -0.8,   -0.8,   -0.8,   -0.8,   -0.7,   -0.8,   -0.7,   -0.8,   -0.7,   -0.8,   -0.8,   -0.9,   -0.8,   -0.8,   -0.6,   -0.6,   -0.7,   -0.7,   -0.6,   -0.7,  999.0,  999.0,  999.0,  999.0,  999.0,  999.0
2000/11/20 08:50,   -0.2,   -0.6,   -0.6,   -0.7,   -0.8,   -0.6,   -0.5,   -0.5,   -0.5,   -0.5,   -0.8,   -0.8,   -0.5,   -0.5,   -0.6,   -0.6,   -1.0,   -0.9,   -1.3,   -1.3,   -1.1,   -1.1,   -1.2,   -1.3,   -1.3,   -1.3,   -1.2,   -1.2,   -1.1,   -1.1,   -1.1,   -1.1,   -1.1,   -1.1,   -1.1,   -1.1,   -1.0,   -1.0,   -0.9,   -0.9,   -0.9,   -0.8,   -0.9,   -0.9,   -0.9,   -0.9,   -0.9,   -0.8,   -0.8,   -0.8,   -0.9,   -0.8,   -0.8,   -0.9,   -0.9,  999.0,  999.0,  999.0,  999.0,  999.0,  999.0,  999.0,  999.0
2000/11/20 09:00,   -0.1,   -0.3,   -0.4,   -0.3,   -0.4,   -0.5,   -0.4,   -0.5,   -0.6,   -0.5,   -0.5,   -0.4,   -0.4,   -0.2,   -0.1,   -0.0,    0.3,   -0.0,   -0.2,   -1.0,   -0.9,   -0.9,   -1.0,   -1.0,   -1.0,   -1.0,   -1.0,   -1.0,   -1.0,   -1.0,   -1.0,   -1.0,   -1.0,   -1.0,   -0.9,   -0.8,   -0.9,   -0.8,   -0.7,   -0.7,   -0.7,   -0.8,   -0.6,   -0.6,   -0.6,   -0.6,   -0.6,   -0.7,   -0.6,   -0.6,   -0.6,   -0.7,   -0.3,  999.0,  999.0,  999.0,  999.0,  999.0,  999.0,  999.0,  999.0,  999.0,  999.0
2000/11/20 09:10,   -0.1,   -0.3,   -0.3,   -0.2,   -0.2,   -0.2,   -0.2,   -0.2,   -0.4,   -0.4,   -0.3,   -0.2,   -0.1,   -0.1,    0.0,    0.1,    0.0,    0.2,   -0.1,   -0.7,   -1.0,   -1.1,   -1.2,   -1.2,   -1.2,   -1.2,   -1.2,   -1.2,   -1.2,   -1.2,   -1.1,   -1.0,   -0.9,   -0.9,   -0.8,   -0.8,   -0.8,   -0.8,   -0.9,   -0.8,   -0.9,   -0.8,   -0.5,  999.0,   -0.8,   -0.6,   -0.6,   -0.7,  999.0,   -0.8,  999.0,  999.0,  999.0,  999.0,  999.0,  999.0,  999.0,  999.0,  999.0,  999.0,  999.0,  999.0,  999.0
2000/11/20 09:20,   -0.3,   -0.6,   -0.4,   -0.5,   -0.4,   -0.2,   -0.1,   -0.1,   -0.0,   -0.1,   -0.2,    0.0,    0.2,    0.2,    0.2,    0.4,    0.2,    0.1,    0.3,    0.0,   -0.5,   -0.7,   -0.8,   -0.9,   -0.9,   -1.0,   -1.0,   -0.9,   -0.9,   -0.8,   -0.8,   -0.7,   -0.6,   -0.6,   -0.6,   -0.6,   -0.6,   -0.6,   -0.6,   -0.6,   -0.5,   -0.4,   -0.7,  999.0,  999.0,  999.0,  999.0,  999.0,  999.0,  999.0,  999.0,  999.0,  999.0,  999.0,  999.0,  999.0,  999.0,  999.0,  999.0,  999.0,  999.0,  999.0,  999.0
2000/11/20 09:30,   -0.3,   -0.3,   -0.3,   -0.3,   -0.2,   -0.0,    0.0,    0.1,    0.2,    0.1,    0.2,    0.3,    0.3,    0.3,    0.3,    0.3,    0.6,    0.4,    0.3,    0.0,   -0.4,   -0.6,   -0.6,   -0.5,   -0.4,   -0.8,   -0.8,   -0.6,   -0.7,   -0.5,   -0.6,   -0.5,   -0.6,   -0.6,   -0.6,   -0.6,   -0.6,   -0.6,   -0.5,   -0.6,   -0.5,   -0.7,   -0.7,   -0.7,   -0.6,   -0.6,   -0.5,   -0.6,   -0.8,   -0.3,   -0.5,   -0.3,  999.0,   -0.2,  999.0,  999.0,  999.0,  999.0,  999.0,  999.0,  999.0,  999.0,  999.0
2000/11/20 09:40,   -0.1,   -0.3,   -0.3,   -0.3,   -0.2,   -0.1,   -0.1,   -0.1,   -0.2,   -0.3,   -0.1,   -0.0,    0.2,    0.1,    0.2,    0.2,    0.2,   -0.1,   -0.6,   -0.8,   -1.0,   -1.0,   -1.1,   -1.3,   -1.3,   -1.2,   -1.2,   -1.2,   -1.2,   -1.2,   -1.2,   -1.2,   -1.2,   -1.2,   -1.2,   -1.1,   -1.1,   -1.1,   -1.0,   -1.1,   -1.0,   -1.0,   -0.9,   -0.9,   -0.7,   -0.7,   -0.6,   -0.6,   -0.5,   -0.6,   -0.3,   -0.4,   -0.5,  999.0,  999.0,  999.0,  999.0,  999.0,  999.0,  999.0,  999.0,  999.0,  999.0
2000/11/20 09:50,   -0.3,   -0.1,   -0.1,   -0.2,   -0.0,    0.1,   -0.2,   -0.3,   -0.1,    0.2,    0.1,    0.1,    0.0,   -0.1,   -0.0,   -0.1,   -0.3,   -0.8,   -1.1,   -0.9,   -0.9,   -0.8,   -0.8,   -0.9,   -0.9,   -0.9,   -0.9,   -0.9,   -0.8,   -0.8,   -0.8,   -0.8,   -0.9,   -0.8,   -0.8,   -0.7,   -0.7,   -0.7,   -0.8,   -0.7,   -0.7,   -0.7,   -0.6,   -0.6,   -0.5,   -0.6,   -0.5,   -0.5,  999.0,  999.0,  999.0,   -0.5,  999.0,  999.0,  999.0,  999.0,  999.0,  999.0,  999.0,  999.0,  999.0,  999.0,  999.0
2000/11/20 10:00,    0.1,   -0.2,    0.1,    0.0,    0.2,    0.3,    0.2,    0.2,    0.1,    0.0,    0.0,    0.1,    0.0,   -0.0,   -0.1,   -0.0,    0.1,    0.3,    0.0,   -0.3,   -0.4,   -0.4,   -0.4,   -0.4,   -0.4,   -0.4,   -0.5,   -0.4,   -0.4,   -0.6,   -0.5,   -0.2,   -0.1,   -0.1,   -0.2,   -0.3,   -0.4,   -0.4,   -0.0,   -0.3,   -0.3,   -0.3,   -0.4,   -0.3,  999.0,  999.0,  999.0,   -0.4,   -0.5,   -0.3,   -0.3,   -0.4,   -0.4,   -0.3,   -0.2,   -0.3,  999.0,  999.0,  999.0,  999.0,  999.0,  999.0,  999.0
2000/11/20 10:10,    0.1,   -0.0,    0.0,    0.1,    0.3,    0.1,   -0.1,   -0.2,   -0.2,   -0.6,   -0.3,   -0.2,   -0.3,   -0.2,   -0.1,    0.0,    0.1,    0.2,    0.0,   -0.6,   -0.7,   -0.7,   -0.6,   -0.5,   -0.5,   -0.4,   -0.3,  999.0,  999.0,  999.0,  999.0,    0.4,    0.6,    0.2,    0.1,    0.4,  999.0,  999.0,  999.0,   -0.2,   -0.2,   -0.3,   -0.3,   -0.3,   -0.3,   -0.3,   -0.2,   -0.3,   -0.4,   -0.4,   -0.4,   -0.3,   -0.4,   -0.3,   -0.4,   -0.2,  999.0,  999.0,  999.0,  999.0,  999.0,  999.0,  999.0
2000/11/20 10:20,    0.1,    0.0,    0.1,   -0.0,   -0.0,    0.0,   -0.0,    0.0,   -0.1,   -0.1,    0.1,   -0.0,    0.0,    0.0,   -0.0,   -0.0,   -0.1,   -0.3,   -0.4,   -0.8,   -0.9,   -0.8,   -0.6,   -0.6,  999.0,  999.0,  999.0,  999.0,  999.0,  999.0,  999.0,  999.0,  999.0,    0.5,  999.0,  999.0,  999.0,  999.0,  999.0,  999.0,   -0.1,   -0.4,   -0.4,   -0.6,   -0.1,   -0.2,   -0.3,   -0.3,   -0.4,   -0.4,   -0.2,   -0.0,   -0.1,  999.0,  999.0,  999.0,  999.0,  999.0,  999.0,  999.0,  999.0,  999.0,  999.0
2000/11/20 10:30,    0.0,   -0.0,    0.3,    0.2,    0.1,    0.0,    0.2,    0.1,    0.0,    0.0,    0.0,   -0.1,    0.2,    0.2,    0.1,    0.2,    0.3,   -0.0,   -0.2,   -0.2,   -0.4,   -0.2,   -0.2,   -0.3,    0.0,  999.0,  999.0,  999.0,  999.0,  999.0,    0.0,    0.6,    0.4,  999.0,  999.0,  999.0,  999.0,  999.0,  999.0,  999.0,  999.0,  999.0,  999.0,  999.0,  999.0,  999.0,   -0.2,   -0.2,   -0.1,   -0.0,   -0.2,  999.0,  999.0,  999.0,  999.0,  999.0,  999.0,  999.0,  999.0,  999.0,  999.0,  999.0,  999.0
2000/11/20 10:40,    0.4,    0.1,    0.2,    0.2,    0.2,    0.0,   -0.2,    0.2,    0.2,    0.2,    0.2,    0.2,    0.0,    0.0,    0.1,    0.1,    0.1,    0.1,    0.2,    0.1,  999.0,  999.0,  999.0,  999.0,   -0.1,  999.0,  999.0,  999.0,  999.0,  999.0,    0.4,    0.4,  999.0,  999.0,  999.0,  999.0,  999.0,  999.0,  999.0,  999.0,  999.0,  999.0,  999.0,  999.0,  999.0,  999.0,  999.0,  999.0,  999.0,  999.0,  999.0,  999.0,  999.0,  999.0,  999.0,  999.0,  999.0,  999.0,  999.0,  999.0,  999.0,  999.0,  999.0
2000/11/20 10:50,    0.3,    0.0,    0.1,    0.1,   -0.1,   -0.0,    0.1,    0.2,    0.2,    0.3,    0.3,    0.3,    0.2,    0.1,    0.0,    0.1,    0.1,    0.1,    0.1,    0.1,  999.0,  999.0,    0.2,  999.0,  999.0,  999.0,  999.0,   -0.0,   -0.0,   -0.2,   -0.0,    0.4,  999.0,  999.0,  999.0,  999.0,  999.0,  999.0,  999.0,  999.0,  999.0,  999.0,  999.0,  999.0,  999.0,  999.0,  999.0,  999.0,  999.0,  999.0,  999.0,  999.0,  999.0,  999.0,  999.0,  999.0,  999.0,  999.0,  999.0,  999.0,  999.0,  999.0,  999.0
2000/11/20 11:00,   -0.0,    0.0,    0.2,    0.1,    0.0,    0.0,    0.2,    0.2,    0.2,    0.3,    0.3,    0.3,    0.2,    0.2,    0.2,    0.1,    0.1,    0.3,    0.3,    0.4,  999.0,  999.0,  999.0,  999.0,  999.0,  999.0,  999.0,  999.0,  999.0,  999.0,  999.0,  999.0,  999.0,    0.2,    0.4,    0.3,  999.0,  999.0,  999.0,  999.0,  999.0,  999.0,  999.0,  999.0,  999.0,  999.0,  999.0,  999.0,  999.0,  999.0,  999.0,  999.0,  999.0,  999.0,  999.0,  999.0,  999.0,  999.0,  999.0,  999.0,  999.0,  999.0,  999.0
2000/11/20 11:10,    0.0,    0.0,    0.1,    0.1,    0.2,    0.1,    0.1,    0.1,    0.1,    0.1,    0.1,    0.1,    0.0,    0.1,    0.0,    0.1,    0.0,    0.1,   -0.0,    0.0,  999.0,  999.0,  999.0,  999.0,  999.0,  999.0,  999.0,  999.0,  999.0,  999.0,   -0.1,  999.0,  999.0,  999.0,    0.3,    0.2,  999.0,  999.0,  999.0,  999.0,  999.0,  999.0,  999.0,  999.0,  999.0,  999.0,  999.0,  999.0,  999.0,  999.0,  999.0,  999.0,  999.0,  999.0,  999.0,  999.0,  999.0,  999.0,  999.0,  999.0,  999.0,  999.0,  999.0
2000/11/20 11:20,   -0.0,    0.2,    0.2,    0.1,    0.0,   -0.0,    0.1,    0.1,    0.1,    0.0,   -0.0,    0.0,    0.0,   -0.0,   -0.1,   -0.1,   -0.0,    0.0,   -0.1,   -0.1,   -0.0,  999.0,   -0.2,  999.0,  999.0,  999.0,  999.0,  999.0,  999.0,  999.0,  999.0,  999.0,  999.0,  999.0,    0.2,  999.0,  999.0,  999.0,  999.0,  999.0,  999.0,  999.0,  999.0,  999.0,  999.0,  999.0,  999.0,  999.0,  999.0,  999.0,  999.0,  999.0,  999.0,  999.0,  999.0,  999.0,  999.0,  999.0,  999.0,  999.0,  999.0,  999.0,  999.0
2000/11/20 11:30,   -0.1,   -0.1,   -0.1,   -0.1,   -0.1,   -0.0,    0.1,    0.1,    0.3,    0.3,    0.2,    0.2,    0.2,    0.2,    0.2,    0.2,    0.2,    0.1,    0.2,    0.1,    0.1,    0.1,  999.0,  999.0,  999.0,  999.0,  999.0,  999.0,  999.0,  999.0,  999.0,  999.0,  999.0,  999.0,  999.0,  999.0,  999.0,  999.0,  999.0,  999.0,  999.0,  999.0,  999.0,  999.0,  999.0,   -0.3,   -0.3,   -0.2,   -0.4,   -0.2,   -0.3,   -0.3,   -0.2,   -0.2,   -0.1,  999.0,  999.0,  999.0,  999.0,  999.0,  999.0,  999.0,  999.0
2000/11/20 11:40,   -0.1,    0.1,    0.1,    0.0,    0.1,    0.1,    0.2,    0.2,    0.2,    0.3,    0.4,    0.3,    0.3,    0.2,    0.3,    0.3,    0.4,    0.4,    0.4,    0.4,  999.0,    0.2,   -0.1,  999.0,  999.0,  999.0,  999.0,  999.0,  999.0,  999.0,  999.0,  999.0,  999.0,  999.0,  999.0,  999.0,  999.0,  999.0,  999.0,  999.0,  999.0,  999.0,  999.0,  999.0,   -0.4,   -0.4,   -0.2,   -0.4,   -0.3,   -0.3,   -0.3,   -0.4,   -0.4,   -0.4,  999.0,  999.0,  999.0,  999.0,  999.0,  999.0,  999.0,  999.0,  999.0
2000/11/20 11:50,   -0.0,   -0.2,   -0.0,   -0.2,   -0.1,    0.0,    0.1,    0.1,    0.3,    0.4,    0.3,    0.3,    0.4,    0.4,    0.3,    0.4,    0.3,    0.3,    0.3,    0.2,  999.0,  999.0,  999.0,  999.0,  999.0,  999.0,  999.0,  999.0,  999.0,  999.0,  999.0,  999.0,  999.0,    0.2,  999.0,  999.0,  999.0,  999.0,  999.0,  999.0,  999.0,  999.0,  999.0,  999.0,  999.0,  999.0,   -0.2,   -0.1,    0.3,   -0.1,  999.0,  999.0,  999.0,  999.0,  999.0,  999.0,  999.0,  999.0,  999.0,  999.0,  999.0,  999.0,  999.0
2000/11/20 12:00,   -0.1,   -0.2,    0.0,   -0.1,    0.1,    0.2,    0.2,    0.3,    0.3,    0.2,    0.3,    0.3,    0.4,    0.3,    0.2,    0.2,    0.2,    0.2,    0.3,    0.2,    0.1,    0.1,  999.0,  999.0,  999.0,  999.0,    0.1,    0.3,  999.0,  999.0,  999.0,  999.0,    0.2,    0.3,  999.0,    0.0,  999.0,  999.0,   -0.1,   -0.4,   -0.2,   -0.1,    0.1,    0.1,    0.1,    0.2,    0.2,    0.2,    0.3,    0.1,    0.2,    0.1,    0.1,  999.0,  999.0,  999.0,  999.0,  999.0,  999.0,  999.0,  999.0,  999.0,  999.0
2000/11/20 12:10,    0.1,    0.0,    0.0,    0.1,    0.2,    0.2,    0.1,    0.1,    0.1,    0.1,    0.1,    0.3,    0.2,    0.3,    0.3,    0.1,    0.1,    0.1,    0.1,    0.2,    0.0,  999.0,    0.1,  999.0,  999.0,  999.0,    0.3,    0.2,    0.3,    0.3,    0.4,    0.7,    0.6,    0.3,  999.0,  999.0,  999.0,  999.0,    0.1,   -0.1,   -0.1,   -0.0,    0.0,   -0.0,   -0.0,    0.1,    0.1,    0.2,    0.2,    0.1,   -0.0,   -0.1,  999.0,    0.1,  999.0,  999.0,  999.0,  999.0,  999.0,  999.0,  999.0,  999.0,  999.0
2000/11/20 12:20,    0.2,    0.3,    0.2,    0.2,    0.1,    0.0,    0.0,   -0.0,    0.0,   -0.0,   -0.1,    0.0,    0.0,   -0.0,   -0.0,   -0.1,   -0.1,   -0.2,   -0.2,   -0.2,   -0.0,   -0.1,  999.0,  999.0,   -0.2,   -0.1,   -0.2,    0.1,   -0.0,   -0.0,    0.1,    0.2,  999.0,  999.0,  999.0,   -1.4,   -1.0,   -1.1,   -0.9,   -0.7,   -0.6,   -0.7,   -0.6,   -0.7,   -0.5,   -0.4,   -0.3,   -0.2,   -0.1,   -0.2,    0.1,   -0.4,  999.0,  999.0,  999.0,  999.0,  999.0,  999.0,  999.0,  999.0,  999.0,  999.0,  999.0
2000/11/20 12:30,    0.1,    0.3,    0.2,    0.2,    0.1,    0.2,    0.2,    0.1,    0.1,    0.2,    0.2,    0.1,    0.1,    0.1,    0.0,    0.0,    0.2,    0.1,    0.1,    0.1,   -0.1,   -0.0,   -0.2,   -0.1,   -0.2,   -0.3,   -0.1,    0.1,    0.1,    0.3,    0.3,   -2.0,   -1.7,   -2.0,   -1.8,   -1.4,   -1.2,   -0.9,   -0.7,   -0.4,   -0.2,   -0.1,   -0.1,   -0.2,   -0.2,   -0.1,   -0.1,    0.1,    0.1,    0.4,  999.0,  999.0,  999.0,  999.0,  999.0,  999.0,  999.0,  999.0,  999.0,  999.0,  999.0,  999.0,  999.0
2000/11/20 12:40,    0.0,   -0.0,   -0.0,   -0.1,    0.0,    0.1,    0.1,    0.1,    0.0,   -0.0,    0.0,    0.3,    0.0,    0.0,    0.1,    0.1,    0.2,    0.3,    0.4,    0.2,    0.1,   -0.1,   -0.2,   -0.1,   -0.3,    0.0,    0.0,   -0.1,   -0.4,   -0.8,   -2.0,   -1.9,   -2.0,   -1.7,   -1.5,   -1.2,   -1.1,   -0.9,   -0.8,   -0.8,   -0.8,   -0.8,   -0.7,   -0.7,   -0.7,   -0.6,   -0.5,   -0.4,   -0.6,   -0.8,   -0.3,   -0.4,   -0.6,   -0.4,  999.0,  999.0,  999.0,  999.0,  999.0,  999.0,  999.0,  999.0,  999.0
2000/11/20 12:50,   -0.4,   -0.7,   -0.4,   -0.5,   -0.5,   -0.3,   -0.3,   -0.1,   -0.3,   -0.5,   -0.6,   -0.5,   -0.2,   -0.8,   -0.2,   -0.3,   -0.3,   -0.2,   -0.3,  999.0,    0.0,    0.2,    0.1,    0.5,    0.3,    0.4,    0.5,    0.2,    0.1,   -0.1,   -0.1,    0.1,   -1.2,   -1.1,   -1.1,   -1.2,   -1.3,   -1.3,   -1.3,   -1.2,   -1.2,   -1.1,   -0.9,   -0.6,   -0.2,  999.0,  999.0,   -0.3,  999.0,   -0.5,  999.0,  999.0,   -0.6,   -0.2,  999.0,  999.0,  999.0,  999.0,  999.0,  999.0,  999.0,  999.0,  999.0
2000/11/20 13:00,   -2.9,   -2.9,   -3.0,   -2.9,   -2.9,   -2.8,   -1.6,   -1.1,   -0.5,   -0.3,    0.0,    0.1,   -1.4,   -0.7,   -1.1,   -2.1,   -0.8,   -0.5,   -0.4,   -0.1,   -0.0,    0.1,   -0.2,   -0.2,   -0.0,   -0.0,    0.1,    0.1,  999.0,    0.0,  999.0,  999.0,   -1.1,   -1.0,   -1.0,   -0.9,   -1.0,   -1.0,   -0.9,   -0.9,   -0.9,   -0.7,   -0.6,   -0.5,   -0.7,  999.0,  999.0,   -0.6,   -0.5,   -0.3,   -0.3,   -0.2,   -0.1,  999.0,  999.0,  999.0,  999.0,  999.0,  999.0,  999.0,  999.0,  999.0,  999.0
2000/11/20 13:10,   -1.2,   -0.8,   -0.3,   -0.6,   -0.4,   -0.2,   -0.1,    0.1,    0.2,    0.3,    0.1,    0.2,    0.3,    0.4,    0.3,    0.3,    0.3,    0.3,    0.4,    0.3,    0.2,    0.2,    0.2,    0.1,    0.0,   -0.0,   -0.1,   -0.2,   -0.1,   -0.1,   -0.0,   -0.3,   -0.7,   -0.9,   -0.7,   -0.8,   -0.8,   -0.9,   -0.9,   -1.0,   -1.0,   -1.0,   -0.9,   -0.8,   -0.6,   -0.7,   -0.6,   -0.5,   -0.4,   -0.3,   -0.3,   -0.0,   -0.1,    0.2,   -0.3,  999.0,  999.0,  999.0,  999.0,  999.0,  999.0,  999.0,  999.0
2000/11/20 13:20,   -0.1,   -0.3,   -0.4,   -0.3,   -0.4,   -0.3,   -0.0,   -0.0,   -0.0,   -0.1,   -0.1,   -0.0,    0.2,    0.1,    0.1,    0.1,    0.0,    0.1,    0.1,    0.3,    0.2,    0.3,    0.1,    0.0,    0.0,    0.1,    0.1,    0.1,   -0.0,    0.0,   -0.1,   -0.4,   -0.7,   -0.8,   -0.9,   -0.9,   -0.8,   -0.8,   -1.0,   -0.7,   -0.8,   -0.5,   -0.4,   -0.6,   -0.4,   -0.2,   -0.1,   -0.0,   -0.0,    0.0,    0.0,   -0.1,   -0.0,    0.1,    0.0,  999.0,  999.0,  999.0,  999.0,  999.0,  999.0,  999.0,  999.0
2000/11/20 13:30,   -0.1,   -0.5,   -0.4,   -0.4,   -0.2,   -0.3,   -0.1,   -0.0,   -0.1,    0.0,    0.0,    0.1,   -0.1,   -0.0,    0.0,    0.0,    0.1,   -0.0,   -0.4,   -0.2,   -0.1,    0.1,    0.0,    0.0,   -0.0,    0.1,    0.1,   -0.1,   -0.2,   -0.6,   -0.8,   -0.9,   -0.9,   -0.9,   -0.7,   -0.7,   -0.7,   -0.6,   -0.5,   -0.6,   -0.5,  999.0,  999.0,  999.0,  999.0,  999.0,    0.0,    0.0,  999.0,   -0.2,   -0.1,    0.0,   -0.2,   -0.1,    0.0,  999.0,  999.0,  999.0,  999.0,  999.0,  999.0,  999.0,  999.0
2000/11/20 13:40,   -4.8,   -4.8,   -4.8,   -4.6,   -4.6,   -4.4,   -4.1,   -4.0,   -3.9,   -3.7,   -3.6,   -3.5,   -3.4,   -3.4,   -3.3,   -3.2,   -3.0,   -2.6,   -2.2,   -1.8,   -0.5,   -0.2,   -0.1,   -0.1,   -0.2,   -0.4,   -1.1,   -1.1,   -1.0,   -0.8,   -0.8,   -0.9,   -0.8,   -0.8,   -0.8,   -0.7,   -0.7,   -0.7,   -0.6,   -0.5,   -0.5,   -0.4,   -0.5,   -0.4,   -0.3,  999.0,  999.0,  999.0,  999.0,  999.0,   -0.4,  999.0,  999.0,   -0.0,  999.0,   -0.2,   -0.1,   -0.2,    0.2,  999.0,  999.0,  999.0,  999.0
2000/11/20 13:50,   -3.0,   -3.5,   -3.3,   -3.0,   -3.1,   -2.9,   -2.6,   -2.5,   -2.3,   -2.0,   -1.9,   -1.8,   -1.5,   -1.2,   -1.1,   -0.8,   -0.4,   -0.4,   -0.3,   -0.4,   -0.4,   -0.5,   -0.7,   -0.8,   -0.9,   -0.7,   -0.7,   -0.6,   -0.6,   -0.6,   -0.7,   -0.7,   -0.7,   -0.7,   -0.6,   -0.6,   -0.6,   -0.5,   -0.5,   -0.5,   -0.5,   -0.4,   -0.4,   -0.4,   -0.5,   -0.4,   -0.4,   -0.4,   -0.4,   -0.3,   -0.2,   -0.3,   -0.2,   -0.2,   -0.3,   -0.4,  999.0,  999.0,   -0.2,   -0.1,  999.0,  999.0,  999.0
2000/11/20 14:00,   -3.0,   -2.8,   -2.8,   -2.6,   -2.1,   -1.4,   -0.9,   -0.5,   -0.8,   -1.0,   -1.3,   -2.4,   -2.0,   -1.6,   -1.7,   -1.5,   -2.3,   -2.5,   -1.7,   -0.9,   -0.9,   -0.7,   -0.7,   -0.3,   -0.2,   -0.8,   -0.5,   -1.0,   -1.1,   -1.1,   -1.3,   -1.2,   -1.0,   -0.9,   -0.6,   -0.7,   -0.6,   -0.5,   -0.4,   -0.4,   -0.4,   -0.4,   -0.3,   -0.4,   -0.4,   -0.4,   -0.3,   -0.2,   -0.1,    0.0,    0.1,    0.2,    0.1,    0.0,    0.0,    0.2,   -0.0,  999.0,    0.5,  999.0,  999.0,  999.0,  999.0
2000/11/20 14:10,   -7.7,   -7.9,   -7.8,   -7.6,   -7.5,   -7.1,   -7.1,   -7.4,   -7.2,   -7.1,   -6.9,   -6.9,   -6.9,   -7.3,   -7.2,   -7.2,   -7.4,   -5.6,  999.0,   -1.4,   -1.7,   -1.6,   -1.5,   -1.5,   -1.3,   -1.2,   -1.0,   -1.0,   -1.0,   -1.0,   -0.6,   -0.5,   -0.8,   -0.7,   -0.5,   -0.5,   -0.4,   -0.4,   -0.3,   -0.5,   -0.5,   -0.5,   -0.4,   -0.5,   -0.5,   -0.5,   -0.5,   -0.4,   -0.3,   -0.2,   -0.3,   -0.4,   -0.4,   -0.4,   -0.2,   -0.4,  999.0,  999.0,  999.0,  999.0,  999.0,  999.0,  999.0
2000/11/20 14:20,   -3.5,   -3.5,   -3.3,   -3.2,   -3.2,   -3.3,   -3.3,   -3.3,   -4.7,   -4.2,   -3.8,   -3.7,   -5.3,   -5.6,   -5.7,   -5.7,   -5.3,   -5.0,  999.0,  999.0,  999.0,   -1.1,   -1.0,   -1.0,   -0.9,   -0.9,   -1.0,   -0.8,   -0.8,   -0.7,   -0.6,   -0.5,   -0.5,   -0.4,   -0.3,   -0.2,   -0.1,   -0.1,   -0.2,   -0.3,   -0.4,   -0.3,   -0.4,   -0.3,   -0.3,   -0.3,   -0.2,   -0.3,   -0.3,   -0.3,   -0.4,   -0.3,   -0.3,   -0.3,   -0.3,  999.0,    0.0,   -0.1,  999.0,  999.0,   -0.1,  999.0,  999.0
2000/11/20 14:30,   -0.3,   -1.9,   -1.7,   -0.0,   -1.4,   -1.9,   -1.3,   -1.6,   -1.6,   -3.2,   -3.2,   -2.3,  999.0,  999.0,   -4.4,   -4.1,   -3.9,   -3.2,   -2.5,   -1.3,   -1.3,   -1.2,   -1.2,   -1.0,   -1.1,   -1.2,   -1.1,   -1.0,   -1.0,   -0.9,   -0.9,   -0.8,   -0.8,   -0.7,   -0.5,   -0.4,   -0.4,   -0.4,   -0.5,   -0.5,   -0.5,   -0.5,   -0.5,   -0.4,   -0.4,   -0.4,   -0.4,   -0.3,   -0.2,   -0.2,   -0.2,   -0.1,   -0.2,   -0.2,   -0.3,   -0.2,   -0.0,   -0.2,   -0.3,   -0.3,   -0.6,  999.0,  999.0
2000/11/20 14:40,   -6.2,   -6.4,   -6.2,   -6.0,   -5.9,   -5.8,   -5.8,   -6.0,   -6.0,   -6.1,   -6.3,   -6.5,   -6.7,   -6.9,   -6.9,   -6.8,   -7.2,  999.0,   -4.5,   -2.5,   -1.7,   -1.7,   -1.5,   -1.4,   -1.2,   -1.1,   -1.1,   -1.1,   -1.1,   -1.1,   -1.2,   -1.2,   -0.9,   -1.0,   -0.9,   -0.7,   -0.7,   -0.7,   -0.7,   -0.7,   -0.7,   -0.5,   -0.4,   -0.5,   -0.4,   -0.3,   -0.2,   -0.3,   -0.4,   -0.4,   -0.4,   -0.3,   -0.4,   -0.4,   -0.4,   -0.3,   -0.3,   -0.3,   -0.2,   -0.0,   -0.0,  999.0,  999.0
2000/11/20 14:50,   -6.3,   -6.3,   -6.3,   -6.0,   -5.5,   -5.3,   -5.0,   -4.9,   -4.8,   -4.6,   -4.4,   -4.2,   -4.1,   -3.8,   -3.4,   -3.6,   -3.5,   -3.0,   -2.6,   -1.5,   -0.4,   -0.2,   -0.3,   -0.3,   -0.6,   -1.2,   -1.1,   -1.2,   -1.4,   -1.3,   -1.2,   -1.2,   -1.1,   -1.0,   -0.8,   -0.7,   -0.6,   -0.7,   -0.7,   -0.8,   -0.7,   -0.6,   -0.6,   -0.5,   -0.5,   -0.5,   -0.5,   -0.5,   -0.5,   -0.4,   -0.4,   -0.3,   -0.2,   -0.2,   -0.5,   -0.5,   -0.3,  999.0,  999.0,  999.0,  999.0,  999.0,  999.0
2000/11/20 15:00,   -6.9,   -6.9,   -6.6,   -6.5,   -6.4,   -6.5,   -6.5,   -6.5,   -6.4,   -6.3,   -6.2,   -6.3,   -6.8,   -6.9,   -7.3,   -7.5,   -7.8,   -6.2,   -4.8,   -3.5,   -2.8,   -2.4,   -2.2,   -1.9,   -1.7,   -1.5,   -1.4,   -1.3,   -1.2,   -1.0,   -0.7,   -0.4,   -0.4,   -0.4,   -0.2,    0.0,    0.1,    0.4,    0.4,    0.5,    0.3,    0.1,    0.1,   -0.0,   -0.1,   -0.1,   -0.1,   -0.2,   -0.2,   -0.2,   -0.2,   -0.2,   -0.2,   -0.2,   -0.3,  999.0,    0.1,   -0.2,  999.0,  999.0,  999.0,  999.0,  999.0
2000/11/20 15:10,   -7.7,   -7.4,   -7.0,   -7.0,   -7.2,   -7.3,   -7.6,   -7.7,   -7.6,   -7.5,   -7.7,   -7.3,   -7.0,   -7.0,   -7.1,   -7.1,   -7.3,   -6.6,   -4.9,   -3.7,   -2.8,   -2.3,   -2.0,   -1.7,   -1.5,   -1.4,   -1.1,   -0.8,   -0.7,   -0.6,   -0.4,   -0.3,   -0.1,   -0.0,    0.1,    0.2,    0.2,    0.1,    0.1,    0.0,   -0.0,    0.0,   -0.0,    0.0,    0.3,    0.2,    0.1,   -0.1,   -0.0,    0.1,    0.1,    0.0,    0.0,    0.1,    0.0,  999.0,  999.0,  999.0,  999.0,  999.0,  999.0,  999.0,  999.0
2000/11/20 15:20,   -4.5,   -4.7,   -4.8,   -4.0,   -4.8,   -3.7,   -3.5,   -3.3,   -3.0,   -2.7,   -3.1,   -3.0,   -2.5,   -2.2,   -1.9,   -1.3,   -0.7,   -0.1,   -0.2,    0.4,    0.4,   -0.0,   -0.2,   -0.4,   -0.6,   -0.6,   -0.8,   -0.7,   -0.8,   -0.8,   -0.9,   -0.8,   -0.7,   -0.7,   -0.6,   -0.5,   -0.5,   -0.6,   -0.5,   -0.5,   -0.6,   -0.6,   -0.6,   -0.6,   -0.5,   -0.4,   -0.4,   -0.4,   -0.2,   -0.3,   -0.2,   -0.2,   -0.1,   -0.1,   -0.0,   -0.2,   -0.0,  999.0,  999.0,  999.0,  999.0,  999.0,  999.0
2000/11/20 15:30,   -2.1,   -0.5,   -1.1,   -0.5,   -0.4,   -0.3,   -0.2,    0.1,    0.1,    0.1,    0.2,    0.2,    0.1,    0.1,   -0.4,   -0.1,   -0.9,   -1.2,   -1.9,  999.0,   -1.1,   -1.0,   -1.0,   -1.0,   -1.0,   -0.9,   -0.8,   -0.9,   -0.9,   -0.8,   -0.8,   -0.8,   -0.7,   -0.7,   -0.7,   -0.7,   -0.7,   -0.6,   -0.6,   -0.6,   -0.7,   -0.7,   -0.7,   -0.7,   -0.7,   -0.7,   -0.7,   -0.7,   -0.7,   -0.7,   -0.5,   -0.5,   -0.5,   -0.5,   -0.6,   -0.6,   -0.4,   -0.4,   -0.1,  999.0,  999.0,  999.0,  999.0
2000/11/20 15:40,   -0.3,   -0.2,   -0.2,   -0.1,   -0.0,    0.3,    0.3,    0.5,    0.7,    0.9,    0.5,    0.8,    0.8,   -0.6,   -0.1,   -0.2,   -0.2,   -0.2,    0.4,    0.4,    0.6,    0.2,   -0.2,   -0.6,   -0.7,   -0.8,   -0.7,   -0.8,   -0.7,   -0.7,   -0.7,   -0.6,   -0.6,   -0.6,   -0.6,   -0.5,   -0.8,   -0.5,   -0.6,   -0.7,   -0.6,   -0.6,   -0.7,   -0.6,   -0.6,   -0.6,   -0.5,   -0.6,   -0.4,   -0.6,   -0.5,   -0.6,   -0.6,   -0.5,   -0.6,   -0.6,   -0.3,  999.0,  999.0,  999.0,  999.0,  999.0,  999.0
2000/11/20 15:50,   -0.1,   -0.1,   -0.0,    0.1,    0.2,    0.2,    0.2,    0.2,    0.3,    0.4,    0.5,    0.5,    0.5,    0.5,    0.7,    0.8,    0.8,    0.4,    0.4,    0.5,    0.4,    0.1,    0.1,   -0.2,   -0.1,   -0.0,   -0.2,    0.0,  999.0,   -0.2,  999.0,  999.0,  999.0,  999.0,  999.0,  999.0,  999.0,  999.0,  999.0,  999.0,  999.0,  999.0,  999.0,  999.0,  999.0,  999.0,  999.0,  999.0,  999.0,  999.0,  999.0,  999.0,  999.0,  999.0,  999.0,  999.0,  999.0,   -0.1,   -0.0,  999.0,  999.0,  999.0,  999.0
2000/11/20 16:00,   -0.2,   -0.3,   -0.2,   -0.3,   -0.4,   -0.4,   -0.4,   -0.4,   -0.3,   -0.3,   -0.3,   -0.2,   -0.2,   -0.1,   -0.0,    0.1,   -0.0,    0.1,    0.1,    0.2,    0.1,    0.1,    0.2,    0.1,    0.1,    0.1,  999.0,    0.5,    0.3,   -0.1,    0.4,    0.5,    0.4,  999.0,  999.0,  999.0,  999.0,  999.0,  999.0,  999.0,  999.0,  999.0,  999.0,  999.0,  999.0,  999.0,  999.0,  999.0,  999.0,  999.0,  999.0,  999.0,  999.0,  999.0,  999.0,  999.0,  999.0,  999.0,  999.0,  999.0,  999.0,  999.0,  999.0
2000/11/20 16:10,   -0.3,   -0.6,   -0.5,   -0.5,   -0.5,   -0.4,   -0.3,   -0.2,   -0.1,   -0.2,   -0.1,   -0.1,    0.1,    0.1,   -0.0,    0.0,    0.1,    0.1,   -0.0,   -0.1,    0.4,    0.2,    0.4,    0.4,    0.3,    0.3,    0.2,    0.4,    0.2,   -0.0,   -0.0,    0.4,    0.2,  999.0,  999.0,  999.0,  999.0,  999.0,  999.0,  999.0,  999.0,  999.0,  999.0,  999.0,  999.0,  999.0,  999.0,  999.0,  999.0,  999.0,  999.0,  999.0,  999.0,  999.0,  999.0,  999.0,  999.0,  999.0,  999.0,  999.0,  999.0,  999.0,  999.0
2000/11/20 16:20,   -0.3,   -0.4,   -0.3,   -0.4,   -0.4,   -0.4,   -0.2,   -0.3,   -0.1,   -0.1,    0.0,    0.0,    0.1,    0.1,    0.2,    0.2,    0.2,    0.2,    0.1,  999.0,  999.0,    0.4,    0.4,    0.4,    0.1,    0.2,    0.4,    0.5,  999.0,  999.0,  999.0,  999.0,  999.0,  999.0,  999.0,  999.0,  999.0,  999.0,  999.0,  999.0,  999.0,  999.0,  999.0,  999.0,  999.0,  999.0,  999.0,  999.0,  999.0,  999.0,  999.0,  999.0,  999.0,  999.0,  999.0,  999.0,  999.0,  999.0,  999.0,  999.0,  999.0,  999.0,  999.0
2000/11/20 16:30,   -0.3,   -0.2,   -0.2,   -0.3,   -0.3,   -0.3,   -0.3,   -0.3,   -0.2,   -0.2,   -0.1,   -0.0,    0.0,   -0.0,   -0.0,    0.0,    0.1,    0.0,    0.0,    0.1,  999.0,  999.0,    0.3,   -0.0,  999.0,  999.0,  999.0,  999.0,  999.0,  999.0,  999.0,  999.0,  999.0,  999.0,  999.0,  999.0,  999.0,  999.0,  999.0,  999.0,  999.0,  999.0,  999.0,  999.0,  999.0,  999.0,  999.0,  999.0,  999.0,  999.0,  999.0,  999.0,  999.0,  999.0,  999.0,  999.0,  999.0,  999.0,  999.0,  999.0,  999.0,  999.0,  999.0
2000/11/20 16:40,   -0.4,   -0.5,   -0.5,   -0.4,   -0.6,   -0.5,   -0.5,   -0.5,   -0.5,   -0.4,   -0.4,   -0.4,   -0.2,   -0.3,   -0.4,   -0.2,   -0.4,    0.0,   -0.0,  999.0,  999.0,  999.0,  999.0,    0.1,  999.0,  999.0,  999.0,  999.0,  999.0,   -0.1,   -0.1,  999.0,  999.0,  999.0,  999.0,  999.0,  999.0,  999.0,  999.0,  999.0,  999.0,  999.0,  999.0,  999.0,  999.0,  999.0,  999.0,  999.0,  999.0,  999.0,  999.0,  999.0,  999.0,  999.0,  999.0,  999.0,  999.0,  999.0,  999.0,  999.0,  999.0,  999.0,  999.0
2000/11/20 16:50,   -0.4,   -0.3,   -0.3,   -0.4,   -0.4,   -0.4,   -0.3,   -0.3,   -0.3,   -0.4,   -0.4,   -0.4,  999.0,  999.0,   -0.1,   -0.1,   -0.1,    0.1,    0.1,    0.1,    0.2,    0.2,    0.3,    0.4,    0.3,    0.5,    0.4,    0.1,  999.0,    0.1,  999.0,  999.0,  999.0,  999.0,  999.0,  999.0,  999.0,    0.1,  999.0,  999.0,  999.0,  999.0,  999.0,  999.0,  999.0,  999.0,  999.0,  999.0,  999.0,  999.0,  999.0,  999.0,  999.0,  999.0,  999.0,  999.0,  999.0,  999.0,  999.0,  999.0,  999.0,  999.0,  999.0
2000/11/20 17:00,   -2.4,   -2.2,   -2.8,   -2.7,   -2.4,   -2.3,   -2.2,   -2.2,   -2.7,   -3.4,   -3.2,   -3.1,   -3.0,   -2.9,   -2.8,   -2.6,   -2.4,   -2.3,   -2.1,   -1.5,   -0.7,   -0.5,   -0.6,   -0.3,   -0.4,   -0.1,    0.2,    0.5,    0.3,  999.0,  999.0,  999.0,  999.0,  999.0,  999.0,  999.0,  999.0,  999.0,  999.0,   -0.1,    0.1,    0.0,   -0.0,    0.0,  999.0,  999.0,  999.0,  999.0,  999.0,  999.0,  999.0,  999.0,  999.0,  999.0,  999.0,  999.0,  999.0,  999.0,  999.0,  999.0,  999.0,  999.0,  999.0
2000/11/20 17:10,   -3.1,   -2.8,   -3.0,   -3.1,   -3.5,   -3.7,   -3.3,   -3.0,   -3.2,   -3.2,   -3.1,   -3.1,   -3.0,   -2.8,   -2.7,   -2.5,   -2.4,   -2.2,   -2.1,   -1.6,   -0.7,   -0.6,   -0.4,   -0.4,   -0.3,   -0.2,   -0.1,    0.3,    0.3,  999.0,  999.0,   -0.1,   -0.3,   -0.2,   -0.3,   -0.2,   -0.1,   -0.0,   -0.0,  999.0,  999.0,  999.0,  999.0,  999.0,  999.0,  999.0,  999.0,  999.0,  999.0,  999.0,  999.0,  999.0,  999.0,  999.0,  999.0,  999.0,  999.0,  999.0,  999.0,  999.0,  999.0,  999.0,  999.0
2000/11/20 17:20,   -3.1,   -3.7,   -3.8,   -4.3,   -4.3,   -4.1,   -4.7,   -4.3,   -4.0,   -3.7,   -3.5,   -3.2,   -3.1,   -2.9,   -2.9,   -2.8,   -2.6,   -2.1,   -2.0,   -1.1,   -0.8,  999.0,  999.0,  999.0,   -0.6,   -0.6,   -0.5,  999.0,   -0.6,   -1.0,   -0.8,   -0.9,   -0.8,   -0.6,   -0.5,   -0.4,   -0.1,   -0.1,  999.0,  999.0,  999.0,  999.0,  999.0,  999.0,  999.0,  999.0,  999.0,  999.0,  999.0,  999.0,  999.0,  999.0,  999.0,  999.0,  999.0,  999.0,  999.0,  999.0,  999.0,  999.0,  999.0,  999.0,  999.0
2000/11/20 17:30,   -0.6,   -0.6,   -0.6,   -0.5,   -1.1,   -1.1,   -0.9,   -1.0,   -0.8,   -0.7,   -0.6,   -0.9,   -0.9,   -0.8,   -0.6,   -0.2,   -0.0,   -0.1,    0.3,    0.0,    0.0,    0.0,   -0.4,   -0.0,    0.1,    0.0,   -0.2,   -0.2,   -0.4,   -0.5,   -0.4,   -0.2,  999.0,   -0.5,   -0.4,  999.0,  999.0,  999.0,  999.0,  999.0,  999.0,  999.0,  999.0,  999.0,  999.0,  999.0,  999.0,  999.0,  999.0,  999.0,  999.0,  999.0,  999.0,  999.0,  999.0,  999.0,  999.0,  999.0,  999.0,  999.0,  999.0,  999.0,  999.0
2000/11/20 17:40,   -0.3,   -0.3,   -0.2,   -0.3,   -0.3,   -0.2,   -0.2,   -0.2,   -0.1,   -0.1,   -0.0,    0.0,   -0.0,    0.0,    0.3,    0.2,    0.2,    0.4,    0.3,    0.2,    0.1,    0.4,    0.4,    0.4,    0.4,    0.4,    0.4,    0.2,    0.0,   -0.0,  999.0,  999.0,  999.0,  999.0,  999.0,  999.0,  999.0,  999.0,  999.0,  999.0,  999.0,  999.0,  999.0,  999.0,  999.0,  999.0,  999.0,  999.0,  999.0,  999.0,  999.0,  999.0,  999.0,  999.0,  999.0,  999.0,  999.0,  999.0,  999.0,  999.0,  999.0,  999.0,  999.0
2000/11/20 17:50,   -0.5,   -0.6,   -0.6,   -0.5,   -0.5,   -0.4,   -0.4,   -0.4,   -0.3,   -0.1,   -0.1,    0.0,    0.1,    0.2,    0.3,    0.3,    0.2,    0.1,    0.4,    0.4,    0.3,    0.5,    0.6,    0.5,    0.5,    0.5,    0.4,    0.2,    0.4,    0.5,    0.3,   -0.0,    0.4,    0.3,    0.0,   -0.1,  999.0,  999.0,  999.0,  999.0,  999.0,  999.0,  999.0,  999.0,  999.0,  999.0,  999.0,  999.0,  999.0,  999.0,  999.0,  999.0,  999.0,  999.0,  999.0,  999.0,  999.0,  999.0,  999.0,  999.0,  999.0,  999.0,  999.0
2000/11/20 18:00,   -0.5,   -0.5,   -0.5,   -0.4,   -0.3,   -0.2,   -0.2,   -0.2,   -0.1,    0.0,    0.2,    0.2,    0.2,    0.4,    0.4,    0.4,    0.6,    0.3,    0.2,    0.1,    0.2,    0.2,    0.1,    0.2,    0.1,    0.1,    0.1,    0.1,    0.1,   -0.1,    0.1,    0.2,    0.0,    0.3,  999.0,   -0.1,   -0.3,  999.0,  999.0,  999.0,  999.0,  999.0,  999.0,  999.0,  999.0,  999.0,  999.0,  999.0,  999.0,  999.0,  999.0,  999.0,  999.0,  999.0,  999.0,  999.0,  999.0,  999.0,  999.0,  999.0,  999.0,  999.0,  999.0
2000/11/20 18:10,   -0.4,   -0.6,   -0.6,   -0.4,   -0.3,   -0.2,   -0.2,   -0.2,   -0.2,    0.0,    0.1,    0.2,    0.2,    0.3,    0.4,    0.2,    0.3,    0.3,    0.4,    0.4,    0.4,    0.3,    0.4,    0.4,    0.5,    0.3,    0.4,    0.3,    0.2,  999.0,  999.0,  999.0,  999.0,  999.0,  999.0,  999.0,  999.0,  999.0,  999.0,  999.0,  999.0,  999.0,  999.0,  999.0,  999.0,  999.0,  999.0,  999.0,  999.0,  999.0,  999.0,  999.0,  999.0,  999.0,  999.0,  999.0,  999.0,   -0.1,  999.0,  999.0,  999.0,  999.0,  999.0
2000/11/20 18:20,   -0.5,   -0.4,   -0.6,   -0.6,   -0.5,   -0.5,   -0.5,   -0.4,   -0.4,   -0.4,   -0.4,   -0.4,   -0.1,   -0.2,   -0.0,   -0.0,    0.1,   -0.1,    0.2,   -0.1,   -0.1,    0.0,   -0.2,   -0.1,   -0.0,   -0.0,   -0.1,    0.0,   -0.1,   -0.0,   -0.1,    0.0,  999.0,  999.0,  999.0,  999.0,  999.0,  999.0,  999.0,   -0.4,  999.0,  999.0,  999.0,  999.0,  999.0,  999.0,  999.0,  999.0,  999.0,  999.0,  999.0,  999.0,  999.0,  999.0,  999.0,   -0.2,  999.0,  999.0,  999.0,  999.0,  999.0,  999.0,  999.0
2000/11/20 18:30,   -0.5,   -0.4,   -0.6,   -0.7,   -0.7,   -0.9,   -0.7,   -0.8,   -0.7,   -0.6,   -0.5,   -0.5,   -0.5,   -0.5,   -0.5,   -0.3,   -0.4,   -0.5,   -0.4,   -0.4,   -0.5,   -0.4,   -0.3,   -0.2,   -0.1,   -0.1,   -0.3,   -0.2,   -0.5,   -0.4,   -0.3,  999.0,  999.0,  999.0,  999.0,  999.0,  999.0,  999.0,  999.0,  999.0,  999.0,  999.0,  999.0,  999.0,  999.0,  999.0,  999.0,  999.0,  999.0,  999.0,  999.0,  999.0,  999.0,  999.0,  999.0,  999.0,  999.0,  999.0,  999.0,  999.0,  999.0,  999.0,  999.0
2000/11/20 18:40,   -0.3,   -0.2,   -0.3,   -0.4,   -0.3,   -0.1,   -0.1,   -0.0,    0.1,    0.2,    0.2,    0.2,    0.5,    0.3,    0.3,    0.5,    0.4,    0.2,    0.1,   -0.1,    0.1,   -0.0,   -0.1,   -0.1,   -0.4,   -0.1,    0.0,   -0.2,   -0.7,   -0.1,   -0.8,  999.0,   -0.4,   -0.4,   -0.6,   -0.6,   -0.1,   -0.2,  999.0,   -0.2,  999.0,  999.0,  999.0,  999.0,  999.0,  999.0,  999.0,  999.0,  999.0,  999.0,  999.0,  999.0,  999.0,  999.0,  999.0,  999.0,  999.0,  999.0,  999.0,  999.0,  999.0,  999.0,  999.0
2000/11/20 18:50,    0.0,   -0.0,    0.0,    0.0,    0.1,   -0.1,   -0.1,   -0.1,    0.1,    0.1,    0.2,    0.2,    0.3,    0.3,    0.2,    0.4,    0.3,    0.3,    0.6,    0.3,    0.2,    0.2,    0.1,   -0.2,   -0.3,   -0.1,   -0.0,   -0.2,   -0.3,   -0.3,   -0.3,   -0.3,   -0.4,   -0.4,   -0.4,   -0.3,   -0.0,   -0.1,    0.0,  999.0,  999.0,  999.0,  999.0,  999.0,  999.0,  999.0,  999.0,  999.0,  999.0,  999.0,  999.0,  999.0,  999.0,  999.0,  999.0,  999.0,  999.0,  999.0,  999.0,  999.0,  999.0,  999.0,  999.0
2000/11/20 19:00,   -0.2,   -0.1,   -0.4,   -0.3,   -0.4,   -0.4,   -0.3,   -0.4,   -0.3,   -0.3,   -0.4,   -0.3,   -0.2,   -0.2,   -0.4,   -0.1,   -0.2,   -0.3,   -0.1,   -0.1,    0.2,    0.3,    0.0,    0.1,    0.3,    0.1,    0.3,    0.4,  999.0,    0.4,  999.0,    0.1,    0.4,   -0.1,   -0.2,   -0.1,   -0.0,   -0.1,   -0.0,  999.0,  999.0,  999.0,  999.0,  999.0,  999.0,  999.0,  999.0,  999.0,  999.0,  999.0,  999.0,  999.0,  999.0,  999.0,  999.0,  999.0,  999.0,  999.0,  999.0,  999.0,  999.0,  999.0,  999.0
2000/11/20 19:10,   -0.3,   -0.4,   -0.5,   -0.7,   -0.4,   -0.6,   -0.6,   -0.6,   -0.4,   -0.4,   -0.4,   -0.4,   -0.3,   -0.2,   -0.3,   -0.3,   -0.2,   -0.2,   -0.0,   -0.1,   -0.2,   -0.1,   -0.0,    0.1,    0.0,    0.1,    0.2,    0.5,  999.0,  999.0,  999.0,  999.0,  999.0,   -0.2,   -0.2,   -0.4,   -0.4,   -0.3,  999.0,  999.0,  999.0,  999.0,  999.0,  999.0,  999.0,  999.0,  999.0,  999.0,  999.0,  999.0,   -0.2,   -0.5,   -0.5,   -0.4,   -0.4,  999.0,  999.0,  999.0,  999.0,  999.0,  999.0,  999.0,  999.0
2000/11/20 19:20,   -0.2,   -0.2,   -0.5,   -0.4,   -0.3,   -0.1,   -0.2,   -0.3,    0.0,   -0.0,    0.2,    0.2,    0.2,    0.1,    0.0,   -0.0,    0.1,   -0.1,   -0.1,   -0.0,   -0.1,   -0.0,    0.1,    0.0,   -0.1,  999.0,  999.0,   -0.2,  999.0,  999.0,    0.1,    0.0,   -0.1,   -0.1,   -0.1,    0.1,  999.0,  999.0,  999.0,  999.0,  999.0,  999.0,  999.0,  999.0,   -0.9,   -0.9,   -0.9,   -0.8,   -0.7,   -0.8,   -0.7,   -0.6,   -0.6,   -0.7,   -0.3,  999.0,  999.0,  999.0,  999.0,  999.0,  999.0,  999.0,  999.0
2000/11/20 19:30,   -0.3,   -0.2,   -0.2,   -0.1,   -0.1,   -0.0,    0.0,   -0.1,    0.0,    0.0,   -0.0,    0.0,   -0.1,   -0.0,   -0.1,    0.1,   -0.0,   -0.0,   -0.1,   -0.1,    0.1,   -0.1,   -0.1,   -0.2,   -0.1,   -0.1,   -0.2,   -0.1,  999.0,  999.0,  999.0,    0.4,   -0.3,    0.2,   -0.1,   -0.4,  999.0,  999.0,  999.0,  999.0,  999.0,  999.0,   -0.9,   -0.9,   -0.9,   -0.8,   -0.7,   -0.7,  999.0,  999.0,  999.0,  999.0,  999.0,  999.0,  999.0,  999.0,  999.0,  999.0,  999.0,   -0.7,  999.0,  999.0,  999.0
2000/11/20 19:40,   -0.4,   -0.4,   -0.2,   -0.1,    0.0,    0.0,    0.1,   -0.1,   -0.0,    0.1,    0.2,    0.0,    0.0,    0.1,    0.0,    0.0,    0.0,   -0.2,  999.0,  999.0,   -0.2,   -0.2,   -0.3,   -0.3,   -0.3,   -0.2,  999.0,  999.0,    0.1,  999.0,  999.0,  999.0,   -0.3,    0.0,  999.0,  999.0,  999.0,  999.0,  999.0,  999.0,  999.0,  999.0,  999.0,  999.0,   -0.8,   -0.8,   -0.9,   -0.9,   -0.9,   -0.9,   -0.9,   -0.8,   -0.9,  999.0,  999.0,  999.0,  999.0,  999.0,  999.0,  999.0,  999.0,  999.0,  999.0
2000/11/20 19:50,   -0.3,   -0.4,   -0.2,   -0.1,    0.1,    0.1,    0.0,    0.1,    0.2,    0.2,    0.1,    0.1,    0.2,    0.1,    0.0,   -0.1,   -0.0,    0.0,   -0.2,   -0.3,   -0.5,   -0.4,   -0.5,   -0.4,   -0.4,   -0.5,  999.0,   -0.1,  999.0,  999.0,   -0.8,   -0.5,   -0.5,   -0.3,  999.0,  999.0,  999.0,  999.0,  999.0,  999.0,   -1.1,   -1.0,   -1.0,   -1.0,   -1.0,   -0.9,   -1.0,   -1.0,   -0.9,   -0.9,   -0.9,   -0.9,   -0.9,   -0.9,   -1.0,  999.0,   -1.1,  999.0,  999.0,  999.0,  999.0,  999.0,  999.0
2000/11/20 20:00,   -0.3,   -0.3,   -0.9,   -0.5,   -0.4,   -0.3,   -0.3,   -0.3,   -0.2,   -0.2,   -0.1,   -0.1,   -0.1,   -0.2,   -0.0,   -0.0,    0.0,   -0.1,   -0.2,   -0.1,   -0.1,   -0.1,    0.1,    0.2,    0.2,    0.5,    0.2,    0.6,  999.0,  999.0,    0.2,    0.3,    0.3,    0.3,  999.0,  999.0,  999.0,   -0.6,   -0.9,   -1.0,   -1.0,   -1.0,   -1.0,   -1.1,   -1.1,   -1.2,   -1.1,   -1.2,   -1.1,   -1.1,   -1.0,   -1.0,   -0.9,   -0.8,   -0.9,   -1.0,   -1.0,   -1.0,  999.0,  999.0,  999.0,  999.0,  999.0
2000/11/20 20:10,   -0.5,   -0.7,   -0.8,   -0.8,   -0.8,   -0.8,   -0.6,   -0.4,   -0.4,   -0.2,   -0.3,   -0.2,   -0.0,   -0.1,   -0.2,   -0.1,  999.0,    0.0,    0.1,    0.0,    0.2,    0.3,    0.3,    0.2,    0.4,    0.4,  999.0,  999.0,  999.0,    0.1,    0.2,    0.3,    0.0,  999.0,   -1.0,   -0.9,   -1.0,   -1.1,   -1.2,   -1.2,   -1.2,   -1.2,   -1.2,   -1.1,   -1.2,   -1.1,   -1.1,   -1.1,   -1.0,   -1.0,   -0.9,   -0.8,   -0.9,   -0.9,   -0.8,   -0.8,   -0.7,   -0.8,   -0.7,   -0.7,   -0.7,  999.0,  999.0
2000/11/20 20:20,   -0.5,   -0.7,   -0.5,   -1.2,   -1.5,   -0.6,   -0.4,   -0.2,   -0.2,   -0.9,  999.0,   -0.4,   -0.5,   -0.4,   -0.2,    0.1,    0.1,    0.3,    0.1,    0.3,    0.4,    0.4,    0.3,    0.6,  999.0,  999.0,  999.0,    0.5,    0.4,    0.3,    0.3,    0.3,  999.0,   -0.0,   -0.5,   -0.7,   -0.8,   -0.9,   -1.0,   -1.0,   -0.9,   -0.9,   -1.0,   -0.9,   -0.9,   -1.0,   -0.9,   -0.8,   -0.8,   -0.7,   -0.6,   -0.7,   -0.7,   -0.6,   -0.6,   -0.7,   -0.6,   -0.5,   -0.5,   -0.6,   -0.4,   -0.4,  999.0
2000/11/20 20:30,   -0.4,   -0.5,   -0.5,   -0.7,   -0.4,   -0.3,   -0.1,   -0.1,   -0.1,   -0.6,   -0.9,   -0.4,   -0.6,   -0.4,   -0.4,   -0.5,   -0.5,    0.3,    0.2,    0.4,    0.2,    0.2,    0.2,   -0.0,   -0.0,   -0.1,    0.2,   -0.6,   -0.7,   -0.4,   -0.3,   -0.3,   -0.3,   -0.5,   -0.6,   -0.7,   -0.7,   -0.7,   -0.7,   -0.6,   -0.6,   -0.6,   -0.5,   -0.5,   -0.5,   -0.5,   -0.6,   -0.7,   -0.8,   -0.8,   -0.7,   -0.7,   -0.7,   -0.6,   -0.5,   -0.6,   -0.4,   -0.5,   -0.5,   -0.5,   -0.4,  999.0,  999.0
2000/11/20 20:40,   -0.3,   -0.3,   -0.5,   -0.4,   -0.3,   -0.2,   -0.1,    0.0,    0.2,    0.3,    0.2,    0.2,    0.3,    0.2,    0.1,    0.3,    0.5,    0.3,    0.2,    0.1,    0.0,   -0.1,   -0.0,   -0.1,    0.1,    0.4,    0.2,   -0.6,   -0.6,   -0.8,   -0.9,   -0.9,   -0.9,   -0.9,   -1.0,   -1.0,   -1.1,   -1.1,   -1.2,   -1.1,   -1.1,   -1.1,   -1.2,   -1.0,   -1.0,   -1.0,   -1.0,   -1.0,   -1.0,   -1.0,   -1.0,   -0.9,   -1.0,   -1.0,   -0.9,   -0.9,   -0.8,   -0.8,   -0.8,   -0.6,  999.0,  999.0,  999.0
2000/11/20 20:50,   -0.2,   -0.2,   -0.2,    0.0,    0.0,    0.0,    0.2,    0.3,    0.4,    0.5,    0.6,    0.6,    0.7,    0.5,    0.6,    0.6,    0.5,    0.5,    0.4,    0.4,    0.5,    0.6,    0.7,    0.8,    0.8,    0.4,    0.4,    0.4,  999.0,  999.0,   -0.5,   -0.6,   -0.4,   -0.7,   -0.7,   -0.8,   -0.8,   -0.5,   -0.6,   -0.8,   -0.9,   -1.0,   -1.0,   -1.0,   -1.1,   -1.0,   -1.1,   -1.0,   -0.9,   -0.9,   -1.0,   -1.0,   -0.9,   -0.9,   -0.9,   -0.8,   -0.7,   -0.6,   -0.6,   -0.7,   -0.7,  999.0,   -0.4
2000/11/20 21:00,   -0.2,   -0.2,   -0.2,   -0.2,   -0.1,   -0.1,    0.2,    0.2,    0.2,    0.3,    0.2,    0.5,    0.5,    0.4,    0.4,    0.1,    0.3,    0.3,    0.2,    0.2,    0.4,    0.5,    0.5,    0.5,    0.4,    0.3,   -0.2,   -0.3,   -0.7,   -0.6,   -0.7,   -0.7,   -0.8,   -0.8,   -0.9,   -0.9,   -0.9,   -0.9,   -0.9,   -0.9,   -0.9,   -1.0,   -1.1,   -1.1,   -1.0,   -1.1,   -1.0,   -1.0,   -0.9,   -0.9,   -0.8,   -0.8,   -0.7,   -0.6,   -0.6,   -0.6,   -0.5,   -0.4,   -0.5,   -0.4,   -0.5,   -0.3,   -0.3
2000/11/20 21:10,   -1.9,   -2.5,   -2.6,   -1.9,   -2.5,   -2.5,   -2.9,   -2.9,   -2.7,   -2.6,   -2.4,   -2.3,   -2.2,   -2.2,   -1.8,   -1.1,   -1.3,   -1.1,   -1.2,   -0.9,   -0.5,   -0.8,   -1.3,   -1.6,   -1.1,  999.0,  999.0,   -0.6,   -0.8,   -1.0,   -1.1,   -1.2,   -1.1,   -1.0,   -0.9,   -0.9,   -0.9,   -0.9,   -1.0,   -1.1,   -1.2,   -1.2,   -1.2,   -1.2,   -1.2,   -1.2,   -1.0,   -0.9,   -0.9,   -0.9,   -0.9,   -0.9,   -0.8,   -0.8,   -0.8,   -0.7,   -0.6,   -0.6,   -0.6,   -0.4,   -0.3,   -0.2,   -0.5
2000/11/20 21:20,   -0.4,   -0.3,   -0.3,   -0.3,   -0.8,   -1.1,   -1.8,   -1.8,   -1.1,   -1.1,   -1.4,   -1.5,   -1.3,   -1.1,   -0.7,   -0.7,   -0.1,    0.3,   -0.0,   -0.3,   -0.3,   -0.1,   -0.5,   -0.1,   -0.1,   -0.1,   -0.2,   -0.2,    0.1,   -0.1,   -0.3,   -1.1,  999.0,   -0.8,   -1.1,   -1.5,   -1.5,   -1.4,   -1.3,   -1.4,   -1.3,   -1.1,   -1.2,   -1.0,   -1.0,   -0.8,   -0.8,   -0.8,   -0.8,   -0.8,   -0.7,   -0.7,   -0.6,   -0.6,   -0.6,   -0.6,   -0.5,   -0.5,   -0.3,   -0.7,   -0.1,  999.0,  999.0
2000/11/20 21:30,   -0.2,   -0.2,   -0.1,   -0.1,   -0.0,    0.1,    0.1,    0.2,    0.3,    0.3,   -0.0,   -0.4,   -0.4,   -0.3,   -0.1,    0.3,    0.2,    0.1,    0.2,    0.1,   -0.1,   -0.2,   -0.3,   -0.3,   -0.0,    0.2,    0.1,    0.1,   -0.0,    0.3,  999.0,  999.0,  999.0,  999.0,  999.0,  999.0,  999.0,  999.0,  999.0,  999.0,   -0.8,   -0.9,   -0.6,   -0.7,   -0.7,   -0.4,   -0.7,   -0.7,   -0.6,   -0.4,   -0.4,   -0.2,  999.0,   -0.3,   -0.3,   -0.2,   -0.3,   -0.4,   -0.3,   -0.4,   -0.2,  999.0,  999.0
2000/11/20 21:40,   -0.2,   -0.2,   -0.1,   -0.3,   -0.3,   -0.1,   -0.1,    0.0,    0.1,    0.2,    0.3,    0.3,    0.4,    0.3,    0.2,    0.3,    0.4,    0.3,    0.2,    0.2,    0.2,    0.4,    0.3,    0.2,    0.2,    0.1,    0.2,    0.1,  999.0,  999.0,  999.0,  999.0,  999.0,  999.0,  999.0,  999.0,  999.0,  999.0,  999.0,   -0.5,   -0.5,   -0.5,   -0.4,   -0.7,   -0.4,   -0.4,   -0.3,  999.0,  999.0,  999.0,  999.0,   -0.4,   -0.5,   -0.6,   -0.4,   -0.4,  999.0,   -0.2,   -0.2,   -0.2,   -0.2,  999.0,  999.0
2000/11/20 21:50,   -0.3,   -0.3,   -0.4,   -0.4,   -0.3,   -0.4,   -0.3,   -0.1,   -0.0,    0.0,    0.1,    0.2,    0.1,    0.1,    0.1,    0.2,    0.3,    0.2,  999.0,    0.2,    0.1,    0.1,    0.2,    0.2,   -0.1,    0.0,    0.2,    0.3,    0.5,    0.4,  999.0,  999.0,  999.0,  999.0,   -0.4,   -0.3,  999.0,  999.0,  999.0,  999.0,  999.0,   -0.7,  999.0,   -0.6,  999.0,  999.0,   -0.5,   -0.7,   -0.6,   -0.8,   -0.7,   -0.6,   -0.5,   -0.3,   -0.5,   -0.5,   -0.5,   -0.4,   -0.4,   -0.3,   -0.3,   -0.3,   -0.1
2000/11/20 22:00,   -0.2,   -0.2,   -0.3,   -0.3,   -0.3,   -0.3,   -0.2,   -0.1,    0.1,   -0.0,    0.0,   -0.1,    0.2,    0.2,    0.2,    0.2,    0.3,  999.0,    0.3,    0.4,    0.3,    0.4,    0.4,    0.3,    0.5,    0.4,    0.3,    0.4,    0.3,    0.1,   -0.0,    0.1,   -0.4,   -0.6,   -0.6,   -0.7,   -0.7,   -0.9,   -0.7,   -0.8,   -0.9,   -0.9,   -0.9,   -1.0,   -0.9,   -0.8,   -0.9,   -0.8,   -0.8,   -0.9,   -0.8,   -0.6,   -0.7,   -0.7,   -0.7,   -0.6,   -0.6,   -0.5,   -0.5,   -0.2,   -0.5,   -0.3,    0.2
2000/11/20 22:10,   -0.3,   -0.3,   -0.4,   -0.3,   -0.4,   -0.4,   -0.4,   -0.3,   -0.2,   -0.2,   -0.1,   -0.0,    0.1,    0.1,    0.1,   -0.0,   -0.1,   -0.3,    0.1,   -0.0,   -0.0,   -0.0,   -0.1,    0.0,   -0.0,   -0.1,    0.1,    0.2,    0.4,    0.1,    0.0,   -0.1,   -0.5,   -0.7,   -0.9,   -1.0,   -0.8,   -0.8,   -0.8,   -0.9,   -0.8,   -0.7,   -0.6,   -0.7,   -0.8,   -0.8,   -0.7,   -0.6,   -0.6,   -0.6,   -0.6,   -0.5,   -0.4,   -0.4,   -0.4,   -0.4,   -0.3,   -0.2,   -0.3,   -0.4,   -0.0,    0.0,  999.0
2000/11/20 22:20,   -1.0,   -1.6,   -1.7,   -1.8,   -1.8,   -1.8,   -1.9,   -1.8,   -1.7,   -1.8,   -1.6,   -1.4,   -1.2,   -0.7,   -0.6,   -0.2,   -0.1,   -0.4,   -0.3,   -0.5,   -0.3,   -0.2,    0.0,    0.1,    0.0,    0.0,   -0.2,    0.1,   -0.2,   -0.6,   -0.9,   -0.7,   -0.8,   -0.9,   -0.7,   -0.9,   -0.9,   -0.8,   -0.7,   -0.7,   -0.8,   -0.8,   -0.7,   -0.7,   -0.8,   -0.7,   -0.7,   -0.7,   -0.8,   -0.5,   -0.5,   -0.5,   -0.4,   -0.5,   -0.4,   -0.4,   -0.3,   -0.3,   -0.2,  999.0,  999.0,  999.0,  999.0
2000/11/20 22:30,   -3.6,   -2.9,   -3.2,   -3.1,   -3.5,   -3.8,   -3.8,   -3.8,   -3.7,   -3.0,   -2.4,   -1.6,   -1.8,   -2.2,   -1.9,   -2.3,   -2.6,   -1.6,   -1.5,   -0.6,   -0.3,   -0.5,   -0.4,   -0.5,   -0.6,   -1.3,   -1.3,   -1.5,   -1.9,   -1.8,   -1.6,   -1.4,   -1.2,   -1.2,   -1.2,   -1.0,   -1.0,   -0.9,   -0.9,   -0.9,   -0.9,   -0.8,   -0.7,   -0.7,   -0.7,   -0.8,   -0.6,   -0.5,   -0.5,   -0.4,   -0.2,   -0.4,   -0.2,   -0.3,  999.0,  999.0,  999.0,  999.0,  999.0,  999.0,  999.0,  999.0,  999.0
2000/11/20 22:40,   -4.2,   -3.8,   -3.9,   -4.0,   -3.8,   -3.5,   -3.3,   -3.6,   -3.2,   -2.9,   -2.6,   -1.0,   -0.6,   -0.9,   -0.6,   -0.8,   -0.5,   -0.3,   -0.7,   -0.2,   -0.2,    0.0,   -0.0,   -0.2,    0.0,   -0.1,    0.1,   -0.1,   -0.2,   -0.5,   -0.8,   -1.2,   -1.1,   -1.2,   -1.1,   -1.1,   -1.0,   -0.9,   -1.0,   -0.9,   -0.9,   -0.8,   -0.9,   -0.9,   -0.8,   -0.8,   -0.8,   -0.8,   -0.8,   -0.8,   -0.7,   -0.7,   -0.6,   -0.7,   -0.5,   -0.5,   -0.4,   -0.3,  999.0,  999.0,  999.0,  999.0,  999.0
2000/11/20 22:50,   -3.6,   -3.8,   -3.7,   -3.6,   -3.6,   -3.9,   -3.6,   -4.9,   -5.0,   -5.7,  999.0,   -6.2,   -6.3,   -6.0,   -6.0,   -4.8,  999.0,   -4.9,   -2.5,   -2.3,   -1.2,   -1.5,   -1.4,   -1.1,   -1.5,   -1.5,   -1.7,   -1.6,   -1.5,   -1.4,   -1.2,   -1.1,   -1.1,   -0.9,   -0.9,   -0.9,   -0.9,   -1.0,   -1.0,   -1.0,   -1.0,   -1.0,   -0.9,   -0.9,   -0.8,   -0.8,   -0.8,   -0.7,   -0.7,   -0.7,   -0.7,   -0.5,   -0.5,   -0.5,   -0.4,   -0.4,   -0.4,   -0.3,  999.0,  999.0,  999.0,  999.0,  999.0
2000/11/20 23:00,   -5.7,   -5.8,   -6.0,   -6.0,   -5.9,   -5.9,   -5.8,   -5.9,   -6.0,   -6.1,   -6.1,   -6.1,   -6.2,   -6.4,   -6.5,   -6.8,   -6.8,   -4.8,   -3.4,   -2.6,   -2.4,   -2.4,   -2.3,   -2.0,   -1.9,   -1.7,   -1.9,   -1.7,   -1.0,   -0.9,   -0.9,   -0.9,   -1.0,   -1.0,   -1.0,   -1.0,   -1.1,   -1.1,   -1.1,   -1.1,   -1.0,   -0.9,   -0.9,   -0.9,   -0.8,   -0.8,   -0.8,   -0.7,   -0.6,   -0.5,   -0.6,   -0.5,   -0.5,   -0.5,   -0.4,   -0.5,  999.0,   -0.1,   -0.6,  999.0,  999.0,  999.0,  999.0
2000/11/20 23:10,   -5.1,   -5.2,   -5.4,   -5.4,   -6.3,   -6.4,   -6.2,   -6.4,   -6.7,   -6.6,   -6.6,   -6.8,   -6.9,   -6.8,   -6.9,   -7.0,   -6.8,   -5.5,   -3.6,   -2.7,   -2.4,   -2.2,   -2.1,   -1.9,   -1.8,   -1.7,   -1.5,   -1.3,   -1.2,   -1.1,   -0.9,   -0.9,   -0.8,   -0.7,   -0.7,   -0.7,   -0.8,   -0.7,   -0.8,   -0.8,   -0.9,   -1.0,   -1.0,   -0.9,   -1.0,   -0.9,   -0.9,   -0.9,   -0.9,   -0.8,   -0.7,   -0.6,   -0.7,   -0.6,   -0.5,   -0.7,   -0.5,   -0.6,  999.0,   -1.0,   -1.0,   -1.1,   -1.2
2000/11/20 23:20,   -7.5,   -8.1,   -8.0,   -7.9,   -8.0,   -7.9,   -7.8,   -8.0,   -7.9,   -8.0,   -8.0,   -8.1,   -8.0,   -8.1,   -8.2,   -8.1,   -6.6,   -4.9,   -4.0,   -2.7,   -2.3,   -2.1,   -1.9,   -1.8,   -1.6,   -1.4,   -1.2,   -1.0,   -0.9,   -0.9,   -0.8,   -0.6,   -0.6,   -0.5,   -0.4,   -0.4,   -0.5,   -0.4,   -0.5,   -0.6,   -0.6,   -0.6,   -1.1,   -0.9,   -1.1,   -1.3,   -1.3,   -1.3,   -1.4,   -1.3,   -1.2,   -1.1,   -0.9,   -0.9,   -0.7,   -0.5,   -0.7,   -0.6,   -0.5,   -0.5,   -0.4,   -0.3,   -0.4
2000/11/20 23:30,   -6.7,   -6.8,   -6.8,   -6.7,   -6.7,   -6.6,   -6.5,   -6.7,   -6.7,   -7.2,   -7.2,   -7.1,   -6.4,   -6.1,   -6.0,   -6.1,   -6.0,   -5.8,   -5.1,   -3.6,   -2.2,   -1.9,   -2.0,   -1.5,   -1.6,   -1.8,   -2.0,   -1.8,   -2.2,   -2.0,   -2.0,   -1.8,   -1.9,   -2.0,   -1.9,   -1.5,   -1.5,   -1.3,   -1.0,   -1.0,   -1.0,   -0.9,   -1.0,   -1.0,   -1.0,   -1.0,   -1.1,   -1.0,   -0.9,   -1.0,   -0.9,   -0.9,   -0.7,   -0.6,   -0.5,   -0.4,   -0.8,   -0.4,  999.0,  999.0,  999.0,  999.0,  999.0
2000/11/20 23:40,   -5.0,   -5.2,   -5.2,   -5.3,   -5.1,   -5.0,   -4.7,   -4.7,   -4.7,   -4.5,   -4.4,   -4.2,   -3.9,   -4.0,   -3.9,   -4.2,   -4.1,   -4.2,   -3.3,   -2.7,   -1.7,   -1.1,   -1.0,   -1.5,   -1.5,   -1.7,   -1.5,   -1.7,   -1.7,   -2.0,   -2.1,   -1.8,   -1.9,   -1.7,   -1.6,   -1.5,   -1.8,   -1.9,   -1.9,   -1.9,   -1.9,   -1.6,   -1.4,   -1.3,   -1.1,   -1.0,   -1.0,   -1.0,   -0.9,   -0.9,   -0.9,   -0.9,   -0.7,   -0.6,   -0.6,   -0.5,   -0.5,  999.0,  999.0,  999.0,  999.0,  999.0,  999.0
2000/11/20 23:50,   -4.1,   -4.4,   -4.2,   -4.4,   -4.1,   -4.1,   -4.5,   -3.7,   -3.9,   -3.9,   -4.3,   -4.3,   -3.9,   -3.8,   -4.2,   -4.1,   -4.0,   -3.9,   -4.0,   -3.7,   -2.9,   -2.1,   -1.6,   -1.5,   -1.0,   -0.8,   -0.4,   -1.0,   -0.4,    0.0,   -0.2,    0.1,    0.4,    0.2,   -0.4,   -0.2,   -1.1,   -1.1,   -2.1,   -1.9,   -1.5,   -1.3,   -1.1,   -1.1,   -0.9,   -0.8,   -0.8,   -0.7,   -0.8,   -0.8,   -0.8,   -0.7,   -0.6,   -0.6,   -0.2,   -0.3,   -0.3,  999.0,  999.0,  999.0,  999.0,  999.0,  999.0
